<?xml version='1.0' encoding='UTF-8'?>
<gpx xmlns="http://www.topografix.com/GPX/1/1" creator="www.balnam.be" version="1.1" xmlns:xsi="http://www.w3.org/2001/XMLSchema-instance" xsi:schemaLocation="http://www.topografix.com/GPX/1/1 http://www.topografix.com/GPX/1/1/gpx.xsd">
<trk>
<name>llglg100</name>
<cmt>q</cmt>
<desc>Liège Sentier n°100 </desc>
<link href="https://chemins.be/liege/sentier/100"/><trkseg>
<trkpt lat="50.627186" lon="5.550253"><time>2026-05-03T01:35:49Z</time></trkpt>
<trkpt lat="50.627581" lon="5.549781"><time>2026-05-03T01:45:49Z</time></trkpt>
<trkpt lat="50.627486" lon="5.548756"><time>2026-05-03T01:55:49Z</time></trkpt>
<trkpt lat="50.627736" lon="5.547275"><time>2026-05-03T02:05:49Z</time></trkpt>
<trkpt lat="50.627889" lon="5.546331"><time>2026-05-03T02:15:49Z</time></trkpt>
<trkpt lat="50.628251" lon="5.545726"><time>2026-05-03T02:25:49Z</time></trkpt>
<trkpt lat="50.628308" lon="5.545434"><time>2026-05-03T02:35:49Z</time></trkpt>
</trkseg>
</trk>
<trk>
<name>llglg101</name>
<cmt>r</cmt>
<desc>Liège Chemin n°101 </desc>
<link href="https://chemins.be/liege/chemin/101"/><trkseg>
<trkpt lat="50.627728" lon="5.557334"><time>2026-05-03T01:35:49Z</time></trkpt>
<trkpt lat="50.627646" lon="5.556592"><time>2026-05-03T01:45:49Z</time></trkpt>
<trkpt lat="50.627586" lon="5.556047"><time>2026-05-03T01:55:49Z</time></trkpt>
<trkpt lat="50.627850" lon="5.555570"><time>2026-05-03T02:05:49Z</time></trkpt>
<trkpt lat="50.627959" lon="5.555300"><time>2026-05-03T02:15:49Z</time></trkpt>
</trkseg></trk>
<trk>
<name>llglg101</name>
<cmt>q</cmt>
<desc>Liège Chemin n°101 </desc>
<link href="https://chemins.be/liege/chemin/101"/><trkseg>
<trkpt lat="50.627959" lon="5.555300"><time>2026-05-03T02:15:49Z</time></trkpt>
<trkpt lat="50.628169" lon="5.554798"><time>2026-05-03T02:25:49Z</time></trkpt>
<trkpt lat="50.626642" lon="5.553566"><time>2026-05-03T02:35:49Z</time></trkpt>
</trkseg>
</trk>
<trk>
<name>llglg102</name>
<cmt>s</cmt>
<desc>Liège Sentier n°102 </desc>
<link href="https://chemins.be/liege/sentier/102"/><trkseg>
<trkpt lat="50.625080" lon="5.553887"><time>2026-05-03T01:35:49Z</time></trkpt>
<trkpt lat="50.626043" lon="5.553956"><time>2026-05-03T01:45:49Z</time></trkpt>
<trkpt lat="50.626653" lon="5.553595"><time>2026-05-03T01:55:49Z</time></trkpt>
<trkpt lat="50.626784" lon="5.553029"><time>2026-05-03T02:05:49Z</time></trkpt>
<trkpt lat="50.627187" lon="5.552600"><time>2026-05-03T02:15:49Z</time></trkpt>
<trkpt lat="50.627301" lon="5.551733"><time>2026-05-03T02:25:49Z</time></trkpt>
<trkpt lat="50.627486" lon="5.551432"><time>2026-05-03T02:35:49Z</time></trkpt>
</trkseg>
</trk>
<trk>
<name>llglg103</name>
<cmt>v</cmt>
<desc>Liège Chemin n°103 Sentier du Terris</desc>
<link href="https://chemins.be/liege/chemin/103"/><trkseg>
<trkpt lat="50.627198" lon="5.557828"><time>2026-05-03T01:35:49Z</time></trkpt>
<trkpt lat="50.626547" lon="5.557413"><time>2026-05-03T01:45:49Z</time></trkpt>
</trkseg>
</trk>
<trk>
<name>llglg105</name>
<cmt>r</cmt>
<desc>Liège Chemin n°105 Boulevard Gustave Kleyer</desc>
<link href="https://chemins.be/liege/chemin/105"/><trkseg>
<trkpt lat="50.624909" lon="5.554684"><time>2026-05-03T01:35:49Z</time></trkpt>
<trkpt lat="50.625258" lon="5.555564"><time>2026-05-03T01:45:49Z</time></trkpt>
<trkpt lat="50.625596" lon="5.556826"><time>2026-05-03T01:55:49Z</time></trkpt>
<trkpt lat="50.625469" lon="5.557130"><time>2026-05-03T02:05:49Z</time></trkpt>
</trkseg></trk>
<trk>
<name>llglg105</name>
<cmt>q</cmt>
<desc>Liège Chemin n°105 Boulevard Gustave Kleyer</desc>
<link href="https://chemins.be/liege/chemin/105"/><trkseg>
<trkpt lat="50.625469" lon="5.557130"><time>2026-05-03T02:05:49Z</time></trkpt>
<trkpt lat="50.625908" lon="5.558640"><time>2026-05-03T02:15:49Z</time></trkpt>
</trkseg></trk>
<trk>
<name>llglg105</name>
<cmt>s</cmt>
<desc>Liège Chemin n°105 Boulevard Gustave Kleyer</desc>
<link href="https://chemins.be/liege/chemin/105"/><trkseg>
<trkpt lat="50.625908" lon="5.558640"><time>2026-05-03T02:15:49Z</time></trkpt>
<trkpt lat="50.626228" lon="5.559706"><time>2026-05-03T02:25:49Z</time></trkpt>
</trkseg>
</trk>
<trk>
<name>llglg108</name>
<cmt>r</cmt>
<desc>Liège Chemin n°108 Rue des Lauriers</desc>
<link href="https://chemins.be/liege/chemin/108"/><trkseg>
<trkpt lat="50.622992" lon="5.556846"><time>2026-05-03T01:35:49Z</time></trkpt>
<trkpt lat="50.622373" lon="5.556975"><time>2026-05-03T01:45:49Z</time></trkpt>
</trkseg></trk>
<trk>
<name>llglg108</name>
<cmt>v</cmt>
<desc>Liège Chemin n°108 Rue des Lauriers</desc>
<link href="https://chemins.be/liege/chemin/108"/><trkseg>
<trkpt lat="50.622373" lon="5.556975"><time>2026-05-03T01:45:49Z</time></trkpt>
<trkpt lat="50.622066" lon="5.557140"><time>2026-05-03T01:55:49Z</time></trkpt>
<trkpt lat="50.621744" lon="5.557022"><time>2026-05-03T02:05:49Z</time></trkpt>
<trkpt lat="50.621156" lon="5.557032"><time>2026-05-03T02:15:49Z</time></trkpt>
<trkpt lat="50.620975" lon="5.556996"><time>2026-05-03T02:25:49Z</time></trkpt>
<trkpt lat="50.620728" lon="5.556703"><time>2026-05-03T02:35:49Z</time></trkpt>
</trkseg>
</trk>
<trk>
<name>llglg11</name>
<cmt>v</cmt>
<desc>Liège Chemin n°11 </desc>
<link href="https://chemins.be/liege/chemin/11"/><trkseg>
<trkpt lat="50.653545" lon="5.582049"><time>2026-05-03T01:35:49Z</time></trkpt>
<trkpt lat="50.653445" lon="5.582508"><time>2026-05-03T01:45:49Z</time></trkpt>
<trkpt lat="50.654002" lon="5.584401"><time>2026-05-03T01:55:49Z</time></trkpt>
</trkseg>
</trk>
<trk>
<name>llglg111</name>
<cmt>v</cmt>
<desc>Liège Chemin n°111 Rue des Cailloux</desc>
<link href="https://chemins.be/liege/chemin/111"/><trkseg>
<trkpt lat="50.619187" lon="5.571877"><time>2026-05-03T01:35:49Z</time></trkpt>
<trkpt lat="50.619120" lon="5.571513"><time>2026-05-03T01:45:49Z</time></trkpt>
<trkpt lat="50.619044" lon="5.570847"><time>2026-05-03T01:55:49Z</time></trkpt>
<trkpt lat="50.618998" lon="5.570543"><time>2026-05-03T02:05:49Z</time></trkpt>
<trkpt lat="50.619115" lon="5.570099"><time>2026-05-03T02:15:49Z</time></trkpt>
<trkpt lat="50.619163" lon="5.569946"><time>2026-05-03T02:25:49Z</time></trkpt>
<trkpt lat="50.619130" lon="5.569013"><time>2026-05-03T02:35:49Z</time></trkpt>
<trkpt lat="50.618867" lon="5.568670"><time>2026-05-03T02:45:49Z</time></trkpt>
</trkseg>
</trk>
<trk>
<name>llglg113</name>
<cmt>r</cmt>
<desc>Liège Chemin n°113 Rue Lesoinne</desc>
<link href="https://chemins.be/liege/chemin/113"/><trkseg>
<trkpt lat="50.621908" lon="5.570929"><time>2026-05-03T01:35:49Z</time></trkpt>
<trkpt lat="50.622120" lon="5.572220"><time>2026-05-03T01:45:49Z</time></trkpt>
<trkpt lat="50.622271" lon="5.573139"><time>2026-05-03T01:55:49Z</time></trkpt>
</trkseg>
</trk>
<trk>
<name>llglg120</name>
<cmt>r</cmt>
<desc>Liège Chemin n°120 Rue du Plope / Vôye des treûs Bouhons / Rue des Neuf-Journaux</desc>
<link href="https://chemins.be/liege/chemin/120"/><trkseg>
<trkpt lat="50.667183" lon="5.585299"><time>2026-05-03T01:35:49Z</time></trkpt>
<trkpt lat="50.667493" lon="5.583419"><time>2026-05-03T01:45:49Z</time></trkpt>
<trkpt lat="50.667448" lon="5.581556"><time>2026-05-03T01:55:49Z</time></trkpt>
</trkseg></trk>
<trk>
<name>llglg120</name>
<cmt>v</cmt>
<desc>Liège Chemin n°120 Rue du Plope / Vôye des treûs Bouhons / Rue des Neuf-Journaux</desc>
<link href="https://chemins.be/liege/chemin/120"/><trkseg>
<trkpt lat="50.667448" lon="5.581556"><time>2026-05-03T01:55:49Z</time></trkpt>
<trkpt lat="50.667361" lon="5.581232"><time>2026-05-03T02:05:49Z</time></trkpt>
</trkseg></trk>
<trk>
<name>llglg120</name>
<cmt>r</cmt>
<desc>Liège Chemin n°120 Rue du Plope / Vôye des treûs Bouhons / Rue des Neuf-Journaux</desc>
<link href="https://chemins.be/liege/chemin/120"/><trkseg>
<trkpt lat="50.667361" lon="5.581232"><time>2026-05-03T02:05:49Z</time></trkpt>
<trkpt lat="50.666954" lon="5.580527"><time>2026-05-03T02:15:49Z</time></trkpt>
</trkseg></trk>
<trk>
<name>llglg120</name>
<cmt>v</cmt>
<desc>Liège Chemin n°120 Rue du Plope / Vôye des treûs Bouhons / Rue des Neuf-Journaux</desc>
<link href="https://chemins.be/liege/chemin/120"/><trkseg>
<trkpt lat="50.666954" lon="5.580527"><time>2026-05-03T02:15:49Z</time></trkpt>
<trkpt lat="50.666791" lon="5.579456"><time>2026-05-03T02:25:49Z</time></trkpt>
<trkpt lat="50.666735" lon="5.578499"><time>2026-05-03T02:35:49Z</time></trkpt>
<trkpt lat="50.666869" lon="5.576982"><time>2026-05-03T02:45:49Z</time></trkpt>
<trkpt lat="50.666929" lon="5.576311"><time>2026-05-03T02:55:49Z</time></trkpt>
<trkpt lat="50.666919" lon="5.574976"><time>2026-05-03T03:05:49Z</time></trkpt>
</trkseg></trk>
<trk>
<name>llglg120</name>
<cmt>r</cmt>
<desc>Liège Chemin n°120 Rue du Plope / Vôye des treûs Bouhons / Rue des Neuf-Journaux</desc>
<link href="https://chemins.be/liege/chemin/120"/><trkseg>
<trkpt lat="50.666919" lon="5.574976"><time>2026-05-03T03:05:49Z</time></trkpt>
<trkpt lat="50.666811" lon="5.574831"><time>2026-05-03T03:15:49Z</time></trkpt>
</trkseg></trk>
<trk>
<name>llglg120</name>
<cmt>v</cmt>
<desc>Liège Chemin n°120 Rue du Plope / Vôye des treûs Bouhons / Rue des Neuf-Journaux</desc>
<link href="https://chemins.be/liege/chemin/120"/><trkseg>
<trkpt lat="50.666811" lon="5.574831"><time>2026-05-03T03:15:49Z</time></trkpt>
<trkpt lat="50.666209" lon="5.573942"><time>2026-05-03T03:25:49Z</time></trkpt>
<trkpt lat="50.665020" lon="5.572188"><time>2026-05-03T03:35:49Z</time></trkpt>
<trkpt lat="50.664495" lon="5.571171"><time>2026-05-03T03:45:49Z</time></trkpt>
</trkseg></trk>
<trk>
<name>llglg120</name>
<cmt>r</cmt>
<desc>Liège Chemin n°120 Rue du Plope / Vôye des treûs Bouhons / Rue des Neuf-Journaux</desc>
<link href="https://chemins.be/liege/chemin/120"/><trkseg>
<trkpt lat="50.664495" lon="5.571171"><time>2026-05-03T03:45:49Z</time></trkpt>
<trkpt lat="50.664016" lon="5.568897"><time>2026-05-03T03:55:49Z</time></trkpt>
</trkseg>
</trk>
<trk>
<name>llglg126</name>
<cmt>q</cmt>
<desc>Liège Sentier n°126 </desc>
<link href="https://chemins.be/liege/sentier/126"/><trkseg>
<trkpt lat="50.656590" lon="5.561887"><time>2026-05-03T01:35:49Z</time></trkpt>
<trkpt lat="50.657624" lon="5.561578"><time>2026-05-03T01:45:49Z</time></trkpt>
</trkseg>
</trk>
<trk>
<name>llglg127</name>
<cmt>r</cmt>
<desc>Liège Chemin n°127 Ruelle des Chats / Boulevard Léon Philippet / Rue Naimette</desc>
<link href="https://chemins.be/liege/chemin/127"/><trkseg>
<trkpt lat="50.654334" lon="5.555113"><time>2026-05-03T01:35:49Z</time></trkpt>
<trkpt lat="50.653950" lon="5.555698"><time>2026-05-03T01:45:49Z</time></trkpt>
</trkseg></trk>
<trk>
<name>llglg127</name>
<cmt>v</cmt>
<desc>Liège Chemin n°127 Ruelle des Chats / Boulevard Léon Philippet / Rue Naimette</desc>
<link href="https://chemins.be/liege/chemin/127"/><trkseg>
<trkpt lat="50.653950" lon="5.555698"><time>2026-05-03T01:45:49Z</time></trkpt>
<trkpt lat="50.653666" lon="5.556256"><time>2026-05-03T01:55:49Z</time></trkpt>
</trkseg></trk>
<trk>
<name>llglg127</name>
<cmt>r</cmt>
<desc>Liège Chemin n°127 Ruelle des Chats / Boulevard Léon Philippet / Rue Naimette</desc>
<link href="https://chemins.be/liege/chemin/127"/><trkseg>
<trkpt lat="50.653666" lon="5.556256"><time>2026-05-03T01:55:49Z</time></trkpt>
<trkpt lat="50.653387" lon="5.556278"><time>2026-05-03T02:05:49Z</time></trkpt>
<trkpt lat="50.653451" lon="5.557029"><time>2026-05-03T02:15:49Z</time></trkpt>
<trkpt lat="50.653238" lon="5.557688"><time>2026-05-03T02:25:49Z</time></trkpt>
<trkpt lat="50.653037" lon="5.558800"><time>2026-05-03T02:35:49Z</time></trkpt>
</trkseg></trk>
<trk>
<name>llglg127</name>
<cmt>v</cmt>
<desc>Liège Chemin n°127 Ruelle des Chats / Boulevard Léon Philippet / Rue Naimette</desc>
<link href="https://chemins.be/liege/chemin/127"/><trkseg>
<trkpt lat="50.653037" lon="5.558800"><time>2026-05-03T02:35:49Z</time></trkpt>
<trkpt lat="50.652930" lon="5.558783"><time>2026-05-03T02:45:49Z</time></trkpt>
<trkpt lat="50.652840" lon="5.558781"><time>2026-05-03T02:55:49Z</time></trkpt>
<trkpt lat="50.652722" lon="5.558891"><time>2026-05-03T03:05:49Z</time></trkpt>
<trkpt lat="50.652513" lon="5.559056"><time>2026-05-03T03:15:49Z</time></trkpt>
<trkpt lat="50.652323" lon="5.559235"><time>2026-05-03T03:25:49Z</time></trkpt>
<trkpt lat="50.651911" lon="5.559917"><time>2026-05-03T03:35:49Z</time></trkpt>
<trkpt lat="50.651801" lon="5.560113"><time>2026-05-03T03:45:49Z</time></trkpt>
<trkpt lat="50.651307" lon="5.560977"><time>2026-05-03T03:55:49Z</time></trkpt>
<trkpt lat="50.651225" lon="5.561088"><time>2026-05-03T04:05:49Z</time></trkpt>
<trkpt lat="50.651084" lon="5.561622"><time>2026-05-03T04:15:49Z</time></trkpt>
</trkseg>
</trk>
<trk>
<name>llglg128</name>
<cmt>s</cmt>
<desc>Liège Chemin n°128 Rue Naniot</desc>
<link href="https://chemins.be/liege/chemin/128"/><trkseg>
<trkpt lat="50.649420" lon="5.553009"><time>2026-05-03T01:35:49Z</time></trkpt>
<trkpt lat="50.649474" lon="5.553571"><time>2026-05-03T01:45:49Z</time></trkpt>
<trkpt lat="50.649791" lon="5.554035"><time>2026-05-03T01:55:49Z</time></trkpt>
</trkseg></trk>
<trk>
<name>llglg128</name>
<cmt>r</cmt>
<desc>Liège Chemin n°128 Rue Naniot</desc>
<link href="https://chemins.be/liege/chemin/128"/><trkseg>
<trkpt lat="50.649791" lon="5.554035"><time>2026-05-03T01:55:49Z</time></trkpt>
<trkpt lat="50.650444" lon="5.554539"><time>2026-05-03T02:05:49Z</time></trkpt>
<trkpt lat="50.651369" lon="5.555254"><time>2026-05-03T02:15:49Z</time></trkpt>
<trkpt lat="50.652653" lon="5.556521"><time>2026-05-03T02:25:49Z</time></trkpt>
<trkpt lat="50.653346" lon="5.556978"><time>2026-05-03T02:35:49Z</time></trkpt>
<trkpt lat="50.654635" lon="5.558159"><time>2026-05-03T02:45:49Z</time></trkpt>
<trkpt lat="50.657523" lon="5.559944"><time>2026-05-03T02:55:49Z</time></trkpt>
<trkpt lat="50.658707" lon="5.560505"><time>2026-05-03T03:05:49Z</time></trkpt>
<trkpt lat="50.658834" lon="5.560935"><time>2026-05-03T03:15:49Z</time></trkpt>
<trkpt lat="50.662248" lon="5.561042"><time>2026-05-03T03:25:49Z</time></trkpt>
</trkseg>
</trk>
<trk>
<name>llglg130</name>
<cmt>v</cmt>
<desc>Liège Chemin n°130 Rue Molinvaux</desc>
<link href="https://chemins.be/liege/chemin/130"/><trkseg>
<trkpt lat="50.657504" lon="5.559917"><time>2026-05-03T01:35:49Z</time></trkpt>
<trkpt lat="50.657506" lon="5.558842"><time>2026-05-03T01:45:49Z</time></trkpt>
<trkpt lat="50.657509" lon="5.558531"><time>2026-05-03T01:55:49Z</time></trkpt>
<trkpt lat="50.657411" lon="5.558373"><time>2026-05-03T02:05:49Z</time></trkpt>
</trkseg>
</trk>
<trk>
<name>llglg132</name>
<cmt>r</cmt>
<desc>Liège Chemin n°132 </desc>
<link href="https://chemins.be/liege/chemin/132"/><trkseg>
<trkpt lat="50.650597" lon="5.549737"><time>2026-05-03T01:35:49Z</time></trkpt>
<trkpt lat="50.650050" lon="5.550384"><time>2026-05-03T01:45:49Z</time></trkpt>
<trkpt lat="50.649835" lon="5.551254"><time>2026-05-03T01:55:49Z</time></trkpt>
</trkseg></trk>
<trk>
<name>llglg132</name>
<cmt>s</cmt>
<desc>Liège Chemin n°132 </desc>
<link href="https://chemins.be/liege/chemin/132"/><trkseg>
<trkpt lat="50.649835" lon="5.551254"><time>2026-05-03T01:55:49Z</time></trkpt>
<trkpt lat="50.649526" lon="5.552670"><time>2026-05-03T02:05:49Z</time></trkpt>
<trkpt lat="50.649395" lon="5.553024"><time>2026-05-03T02:15:49Z</time></trkpt>
<trkpt lat="50.648762" lon="5.553335"><time>2026-05-03T02:25:49Z</time></trkpt>
<trkpt lat="50.648556" lon="5.554032"><time>2026-05-03T02:35:49Z</time></trkpt>
<trkpt lat="50.648565" lon="5.554687"><time>2026-05-03T02:45:49Z</time></trkpt>
</trkseg></trk>
<trk>
<name>llglg132</name>
<cmt>r</cmt>
<desc>Liège Chemin n°132 </desc>
<link href="https://chemins.be/liege/chemin/132"/><trkseg>
<trkpt lat="50.648565" lon="5.554687"><time>2026-05-03T02:45:49Z</time></trkpt>
<trkpt lat="50.648862" lon="5.555702"><time>2026-05-03T02:55:49Z</time></trkpt>
<trkpt lat="50.648835" lon="5.556153"><time>2026-05-03T03:05:49Z</time></trkpt>
<trkpt lat="50.648531" lon="5.557355"><time>2026-05-03T03:15:49Z</time></trkpt>
<trkpt lat="50.648055" lon="5.557508"><time>2026-05-03T03:25:49Z</time></trkpt>
<trkpt lat="50.647907" lon="5.557787"><time>2026-05-03T03:35:49Z</time></trkpt>
</trkseg></trk>
<trk>
<name>llglg132</name>
<cmt>q</cmt>
<desc>Liège Chemin n°132 </desc>
<link href="https://chemins.be/liege/chemin/132"/><trkseg>
<trkpt lat="50.647907" lon="5.557787"><time>2026-05-03T03:35:49Z</time></trkpt>
<trkpt lat="50.647810" lon="5.557977"><time>2026-05-03T03:45:49Z</time></trkpt>
<trkpt lat="50.647288" lon="5.557655"><time>2026-05-03T03:55:49Z</time></trkpt>
<trkpt lat="50.646288" lon="5.558116"><time>2026-05-03T04:05:49Z</time></trkpt>
</trkseg>
</trk>
<trk>
<name>llglg133</name>
<cmt>r</cmt>
<desc>Liège Chemin n°133 Rue Wacheray</desc>
<link href="https://chemins.be/liege/chemin/133"/><trkseg>
<trkpt lat="50.648549" lon="5.554515"><time>2026-05-03T01:35:49Z</time></trkpt>
<trkpt lat="50.647733" lon="5.555041"><time>2026-05-03T01:45:49Z</time></trkpt>
<trkpt lat="50.647493" lon="5.554889"><time>2026-05-03T01:55:49Z</time></trkpt>
</trkseg></trk>
<trk>
<name>llglg133</name>
<cmt>v</cmt>
<desc>Liège Chemin n°133 Rue Wacheray</desc>
<link href="https://chemins.be/liege/chemin/133"/><trkseg>
<trkpt lat="50.647493" lon="5.554889"><time>2026-05-03T01:55:49Z</time></trkpt>
<trkpt lat="50.647352" lon="5.554833"><time>2026-05-03T02:05:49Z</time></trkpt>
</trkseg>
</trk>
<trk>
<name>llglg142</name>
<cmt>v</cmt>
<desc>Liège Chemin n°142 </desc>
<link href="https://chemins.be/liege/chemin/142"/><trkseg>
<trkpt lat="50.658029" lon="5.563574"><time>2026-05-03T01:35:49Z</time></trkpt>
<trkpt lat="50.657773" lon="5.564301"><time>2026-05-03T01:45:49Z</time></trkpt>
</trkseg>
</trk>
<trk>
<name>llglg143</name>
<cmt>r</cmt>
<desc>Liège Chemin n°143 Rue des Églantiers / Rue Jean Haust / Thier Savary</desc>
<link href="https://chemins.be/liege/chemin/143"/><trkseg>
<trkpt lat="50.652470" lon="5.563824"><time>2026-05-03T01:35:49Z</time></trkpt>
<trkpt lat="50.652870" lon="5.566077"><time>2026-05-03T01:45:49Z</time></trkpt>
</trkseg></trk>
<trk>
<name>llglg143</name>
<cmt>v</cmt>
<desc>Liège Chemin n°143 Rue des Églantiers / Rue Jean Haust / Thier Savary</desc>
<link href="https://chemins.be/liege/chemin/143"/><trkseg>
<trkpt lat="50.652870" lon="5.566077"><time>2026-05-03T01:45:49Z</time></trkpt>
<trkpt lat="50.653172" lon="5.566866"><time>2026-05-03T01:55:49Z</time></trkpt>
</trkseg></trk>
<trk>
<name>llglg143</name>
<cmt>s</cmt>
<desc>Liège Chemin n°143 Rue des Églantiers / Rue Jean Haust / Thier Savary</desc>
<link href="https://chemins.be/liege/chemin/143"/><trkseg>
<trkpt lat="50.653172" lon="5.566866"><time>2026-05-03T01:55:49Z</time></trkpt>
<trkpt lat="50.653361" lon="5.567343"><time>2026-05-03T02:05:49Z</time></trkpt>
</trkseg></trk>
<trk>
<name>llglg143</name>
<cmt>r</cmt>
<desc>Liège Chemin n°143 Rue des Églantiers / Rue Jean Haust / Thier Savary</desc>
<link href="https://chemins.be/liege/chemin/143"/><trkseg>
<trkpt lat="50.653361" lon="5.567343"><time>2026-05-03T02:05:49Z</time></trkpt>
<trkpt lat="50.653710" lon="5.567569"><time>2026-05-03T02:15:49Z</time></trkpt>
<trkpt lat="50.652822" lon="5.569950"><time>2026-05-03T02:25:49Z</time></trkpt>
<trkpt lat="50.652350" lon="5.570063"><time>2026-05-03T02:35:49Z</time></trkpt>
</trkseg></trk>
<trk>
<name>llglg143</name>
<cmt>v</cmt>
<desc>Liège Chemin n°143 Rue des Églantiers / Rue Jean Haust / Thier Savary</desc>
<link href="https://chemins.be/liege/chemin/143"/><trkseg>
<trkpt lat="50.652350" lon="5.570063"><time>2026-05-03T02:35:49Z</time></trkpt>
<trkpt lat="50.652486" lon="5.571195"><time>2026-05-03T02:45:49Z</time></trkpt>
<trkpt lat="50.652469" lon="5.571565"><time>2026-05-03T02:55:49Z</time></trkpt>
<trkpt lat="50.652187" lon="5.572273"><time>2026-05-03T03:05:49Z</time></trkpt>
</trkseg>
</trk>
<trk>
<name>llglg144</name>
<cmt>q</cmt>
<desc>Liège Chemin n°144 </desc>
<link href="https://chemins.be/liege/chemin/144"/><trkseg>
<trkpt lat="50.648844" lon="5.556179"><time>2026-05-03T01:35:49Z</time></trkpt>
<trkpt lat="50.649322" lon="5.555657"><time>2026-05-03T01:45:49Z</time></trkpt>
<trkpt lat="50.649857" lon="5.555671"><time>2026-05-03T01:55:49Z</time></trkpt>
<trkpt lat="50.650333" lon="5.556065"><time>2026-05-03T02:05:49Z</time></trkpt>
<trkpt lat="50.650717" lon="5.556998"><time>2026-05-03T02:15:49Z</time></trkpt>
</trkseg>
</trk>
<trk>
<name>llglg154</name>
<cmt>v</cmt>
<desc>Liège Sentier n°154 Rue des Dahlias</desc>
<link href="https://chemins.be/liege/sentier/154"/><trkseg>
<trkpt lat="50.666706" lon="5.582393"><time>2026-05-03T01:35:49Z</time></trkpt>
<trkpt lat="50.666290" lon="5.582797"><time>2026-05-03T01:45:49Z</time></trkpt>
</trkseg>
</trk>
<trk>
<name>llglg155</name>
<cmt>q</cmt>
<desc>Liège Sentier n°155 </desc>
<link href="https://chemins.be/liege/sentier/155"/><trkseg>
<trkpt lat="50.666069" lon="5.579814"><time>2026-05-03T01:35:49Z</time></trkpt>
<trkpt lat="50.665841" lon="5.577857"><time>2026-05-03T01:45:49Z</time></trkpt>
</trkseg></trk>
<trk>
<name>llglg155</name>
<cmt>s</cmt>
<desc>Liège Sentier n°155 </desc>
<link href="https://chemins.be/liege/sentier/155"/><trkseg>
<trkpt lat="50.665841" lon="5.577857"><time>2026-05-03T01:45:49Z</time></trkpt>
<trkpt lat="50.663393" lon="5.571008"><time>2026-05-03T01:55:49Z</time></trkpt>
<trkpt lat="50.662696" lon="5.570356"><time>2026-05-03T02:05:49Z</time></trkpt>
</trkseg>
</trk>
<trk>
<name>llglg157</name>
<cmt>r</cmt>
<desc>Liège Sentier n°157 Rue du Sergent Merx</desc>
<link href="https://chemins.be/liege/sentier/157"/><trkseg>
<trkpt lat="50.662302" lon="5.561029"><time>2026-05-03T01:35:49Z</time></trkpt>
<trkpt lat="50.663314" lon="5.561267"><time>2026-05-03T01:45:49Z</time></trkpt>
<trkpt lat="50.663576" lon="5.561229"><time>2026-05-03T01:55:49Z</time></trkpt>
</trkseg>
</trk>
<trk>
<name>llglg158</name>
<cmt>v</cmt>
<desc>Liège Sentier n°158 Rue de la Charité</desc>
<link href="https://chemins.be/liege/sentier/158"/><trkseg>
<trkpt lat="50.633670" lon="5.593641"><time>2026-05-03T01:35:49Z</time></trkpt>
<trkpt lat="50.633766" lon="5.592979"><time>2026-05-03T01:45:49Z</time></trkpt>
<trkpt lat="50.633978" lon="5.592546"><time>2026-05-03T01:55:49Z</time></trkpt>
<trkpt lat="50.634125" lon="5.592225"><time>2026-05-03T02:05:49Z</time></trkpt>
<trkpt lat="50.634162" lon="5.592112"><time>2026-05-03T02:15:49Z</time></trkpt>
</trkseg>
</trk>
<trk>
<name>llglg20</name>
<cmt>s</cmt>
<desc>Liège Chemin n°20 Rue de Bernalmont.</desc>
<link href="https://chemins.be/liege/chemin/20"/><trkseg>
<trkpt lat="50.661838" lon="5.608192"><time>2026-05-03T01:35:49Z</time></trkpt>
<trkpt lat="50.661853" lon="5.607655"><time>2026-05-03T01:45:49Z</time></trkpt>
<trkpt lat="50.661450" lon="5.607517"><time>2026-05-03T01:55:49Z</time></trkpt>
<trkpt lat="50.661404" lon="5.605861"><time>2026-05-03T02:05:49Z</time></trkpt>
<trkpt lat="50.661519" lon="5.605256"><time>2026-05-03T02:15:49Z</time></trkpt>
</trkseg></trk>
<trk>
<name>llglg20</name>
<cmt>v</cmt>
<desc>Liège Chemin n°20 Rue de Bernalmont.</desc>
<link href="https://chemins.be/liege/chemin/20"/><trkseg>
<trkpt lat="50.661519" lon="5.605256"><time>2026-05-03T02:15:49Z</time></trkpt>
<trkpt lat="50.661792" lon="5.604047"><time>2026-05-03T02:25:49Z</time></trkpt>
<trkpt lat="50.661941" lon="5.603612"><time>2026-05-03T02:35:49Z</time></trkpt>
</trkseg></trk>
<trk>
<name>llglg20</name>
<cmt>s</cmt>
<desc>Liège Chemin n°20 Rue de Bernalmont.</desc>
<link href="https://chemins.be/liege/chemin/20"/><trkseg>
<trkpt lat="50.661941" lon="5.603612"><time>2026-05-03T02:35:49Z</time></trkpt>
<trkpt lat="50.662470" lon="5.604531"><time>2026-05-03T02:45:49Z</time></trkpt>
<trkpt lat="50.662930" lon="5.604430"><time>2026-05-03T02:55:49Z</time></trkpt>
<trkpt lat="50.663094" lon="5.604236"><time>2026-05-03T03:05:49Z</time></trkpt>
<trkpt lat="50.663288" lon="5.604595"><time>2026-05-03T03:15:49Z</time></trkpt>
</trkseg>
</trk>
<trk>
<name>llglg21</name>
<cmt>v</cmt>
<desc>Liège Chemin n°21 Rue de Herstal / Rue Charles Gothier / Rue Tribouillet / Rue Renardi / Rue Chapeauville</desc>
<link href="https://chemins.be/liege/chemin/21"/><trkseg>
<trkpt lat="50.658539" lon="5.595530"><time>2026-05-03T01:35:49Z</time></trkpt>
<trkpt lat="50.659567" lon="5.596886"><time>2026-05-03T01:45:49Z</time></trkpt>
<trkpt lat="50.660416" lon="5.596989"><time>2026-05-03T01:55:49Z</time></trkpt>
</trkseg></trk>
<trk>
<name>llglg21</name>
<cmt>r</cmt>
<desc>Liège Chemin n°21 Rue de Herstal / Rue Charles Gothier / Rue Tribouillet / Rue Renardi / Rue Chapeauville</desc>
<link href="https://chemins.be/liege/chemin/21"/><trkseg>
<trkpt lat="50.660416" lon="5.596989"><time>2026-05-03T01:55:49Z</time></trkpt>
<trkpt lat="50.660372" lon="5.598474"><time>2026-05-03T02:05:49Z</time></trkpt>
<trkpt lat="50.660394" lon="5.599495"><time>2026-05-03T02:15:49Z</time></trkpt>
</trkseg></trk>
<trk>
<name>llglg21</name>
<cmt>v</cmt>
<desc>Liège Chemin n°21 Rue de Herstal / Rue Charles Gothier / Rue Tribouillet / Rue Renardi / Rue Chapeauville</desc>
<link href="https://chemins.be/liege/chemin/21"/><trkseg>
<trkpt lat="50.660394" lon="5.599495"><time>2026-05-03T02:15:49Z</time></trkpt>
<trkpt lat="50.660435" lon="5.600345"><time>2026-05-03T02:25:49Z</time></trkpt>
<trkpt lat="50.660489" lon="5.601452"><time>2026-05-03T02:35:49Z</time></trkpt>
<trkpt lat="50.660946" lon="5.601620"><time>2026-05-03T02:45:49Z</time></trkpt>
<trkpt lat="50.661371" lon="5.601334"><time>2026-05-03T02:55:49Z</time></trkpt>
<trkpt lat="50.662035" lon="5.601478"><time>2026-05-03T03:05:49Z</time></trkpt>
<trkpt lat="50.662303" lon="5.601683"><time>2026-05-03T03:15:49Z</time></trkpt>
</trkseg></trk>
<trk>
<name>llglg21</name>
<cmt>r</cmt>
<desc>Liège Chemin n°21 Rue de Herstal / Rue Charles Gothier / Rue Tribouillet / Rue Renardi / Rue Chapeauville</desc>
<link href="https://chemins.be/liege/chemin/21"/><trkseg>
<trkpt lat="50.662303" lon="5.601683"><time>2026-05-03T03:15:49Z</time></trkpt>
<trkpt lat="50.662513" lon="5.601321"><time>2026-05-03T03:25:49Z</time></trkpt>
</trkseg></trk>
<trk>
<name>llglg21</name>
<cmt>v</cmt>
<desc>Liège Chemin n°21 Rue de Herstal / Rue Charles Gothier / Rue Tribouillet / Rue Renardi / Rue Chapeauville</desc>
<link href="https://chemins.be/liege/chemin/21"/><trkseg>
<trkpt lat="50.662513" lon="5.601321"><time>2026-05-03T03:25:49Z</time></trkpt>
<trkpt lat="50.662558" lon="5.601351"><time>2026-05-03T03:35:49Z</time></trkpt>
<trkpt lat="50.662639" lon="5.601324"><time>2026-05-03T03:45:49Z</time></trkpt>
<trkpt lat="50.662828" lon="5.601358"><time>2026-05-03T03:55:49Z</time></trkpt>
<trkpt lat="50.662934" lon="5.601502"><time>2026-05-03T04:05:49Z</time></trkpt>
<trkpt lat="50.662986" lon="5.601673"><time>2026-05-03T04:15:49Z</time></trkpt>
<trkpt lat="50.663004" lon="5.601702"><time>2026-05-03T04:25:49Z</time></trkpt>
<trkpt lat="50.663149" lon="5.601578"><time>2026-05-03T04:35:49Z</time></trkpt>
<trkpt lat="50.663176" lon="5.601579"><time>2026-05-03T04:45:49Z</time></trkpt>
<trkpt lat="50.663212" lon="5.601594"><time>2026-05-03T04:55:49Z</time></trkpt>
</trkseg>
</trk>
<trk>
<name>llglg21bis</name>
<cmt>r</cmt>
<desc>Liège Chemin n°21bis Rue Charles Gothier</desc>
<link href="https://chemins.be/liege/chemin/21bis"/><trkseg>
<trkpt lat="50.660367" lon="5.599616"><time>2026-05-03T01:35:49Z</time></trkpt>
<trkpt lat="50.659632" lon="5.602319"><time>2026-05-03T01:45:49Z</time></trkpt>
<trkpt lat="50.659197" lon="5.603349"><time>2026-05-03T01:55:49Z</time></trkpt>
</trkseg></trk>
<trk>
<name>llglg21bis</name>
<cmt>v</cmt>
<desc>Liège Chemin n°21bis Rue Charles Gothier</desc>
<link href="https://chemins.be/liege/chemin/21bis"/><trkseg>
<trkpt lat="50.659197" lon="5.603349"><time>2026-05-03T01:55:49Z</time></trkpt>
<trkpt lat="50.659502" lon="5.603487"><time>2026-05-03T02:05:49Z</time></trkpt>
<trkpt lat="50.659605" lon="5.603907"><time>2026-05-03T02:15:49Z</time></trkpt>
<trkpt lat="50.659513" lon="5.604491"><time>2026-05-03T02:25:49Z</time></trkpt>
<trkpt lat="50.659507" lon="5.604800"><time>2026-05-03T02:35:49Z</time></trkpt>
</trkseg>
</trk>
<trk>
<name>llglg21ter</name>
<cmt>d</cmt>
<desc>Liège Chemin n°21ter </desc>
<link href="https://chemins.be/liege/chemin/21ter"/><trkseg>
<trkpt lat="50.659656" lon="5.602300"><time>2026-05-03T01:35:49Z</time></trkpt>
<trkpt lat="50.659937" lon="5.602382"><time>2026-05-03T01:45:49Z</time></trkpt>
</trkseg>
</trk>
<trk>
<name>llglg22</name>
<cmt>v</cmt>
<desc>Liège Chemin n°22 Ruelle Paradis</desc>
<link href="https://chemins.be/liege/chemin/22"/><trkseg>
<trkpt lat="50.661106" lon="5.603519"><time>2026-05-03T01:35:49Z</time></trkpt>
<trkpt lat="50.661383" lon="5.603654"><time>2026-05-03T01:45:49Z</time></trkpt>
<trkpt lat="50.661846" lon="5.604062"><time>2026-05-03T01:55:49Z</time></trkpt>
</trkseg>
</trk>
<trk>
<name>llglg23</name>
<cmt>v</cmt>
<desc>Liège Chemin n°23 Rue du Thier-à-Liège</desc>
<link href="https://chemins.be/liege/chemin/23"/><trkseg>
<trkpt lat="50.662020" lon="5.595833"><time>2026-05-03T01:35:49Z</time></trkpt>
<trkpt lat="50.662488" lon="5.598579"><time>2026-05-03T01:45:49Z</time></trkpt>
</trkseg></trk>
<trk>
<name>llglg23</name>
<cmt>d</cmt>
<desc>Liège Chemin n°23 Rue du Thier-à-Liège</desc>
<link href="https://chemins.be/liege/chemin/23"/><trkseg>
<trkpt lat="50.662488" lon="5.598579"><time>2026-05-03T01:45:49Z</time></trkpt>
<trkpt lat="50.662521" lon="5.598768"><time>2026-05-03T01:55:49Z</time></trkpt>
<trkpt lat="50.662379" lon="5.598841"><time>2026-05-03T02:05:49Z</time></trkpt>
<trkpt lat="50.662420" lon="5.599450"><time>2026-05-03T02:15:49Z</time></trkpt>
</trkseg>
</trk>
<trk>
<name>llglg24</name>
<cmt>v</cmt>
<desc>Liège Chemin n°24 Rue Chapeauville / d</desc>
<link href="https://chemins.be/liege/chemin/24"/><trkseg>
<trkpt lat="50.663487" lon="5.596237"><time>2026-05-03T01:35:49Z</time></trkpt>
<trkpt lat="50.663408" lon="5.596585"><time>2026-05-03T01:45:49Z</time></trkpt>
<trkpt lat="50.663551" lon="5.597272"><time>2026-05-03T01:55:49Z</time></trkpt>
<trkpt lat="50.663566" lon="5.597319"><time>2026-05-03T02:05:49Z</time></trkpt>
<trkpt lat="50.663762" lon="5.597177"><time>2026-05-03T02:15:49Z</time></trkpt>
<trkpt lat="50.663841" lon="5.597336"><time>2026-05-03T02:25:49Z</time></trkpt>
<trkpt lat="50.663773" lon="5.597830"><time>2026-05-03T02:35:49Z</time></trkpt>
<trkpt lat="50.663852" lon="5.598362"><time>2026-05-03T02:45:49Z</time></trkpt>
<trkpt lat="50.663787" lon="5.598684"><time>2026-05-03T02:55:49Z</time></trkpt>
</trkseg></trk>
<trk>
<name>llglg24</name>
<cmt>q</cmt>
<desc>Liège Chemin n°24 Rue Chapeauville / d</desc>
<link href="https://chemins.be/liege/chemin/24"/><trkseg>
<trkpt lat="50.663787" lon="5.598684"><time>2026-05-03T02:55:49Z</time></trkpt>
<trkpt lat="50.664263" lon="5.599529"><time>2026-05-03T03:05:49Z</time></trkpt>
</trkseg>
</trk>
<trk>
<name>llglg25</name>
<cmt>r</cmt>
<desc>Liège Chemin n°25 Rue du Géron / Accès privé</desc>
<link href="https://chemins.be/liege/chemin/25"/><trkseg>
<trkpt lat="50.660928" lon="5.594730"><time>2026-05-03T01:35:49Z</time></trkpt>
<trkpt lat="50.660914" lon="5.594433"><time>2026-05-03T01:45:49Z</time></trkpt>
<trkpt lat="50.660698" lon="5.593593"><time>2026-05-03T01:55:49Z</time></trkpt>
<trkpt lat="50.660306" lon="5.592338"><time>2026-05-03T02:05:49Z</time></trkpt>
<trkpt lat="50.659395" lon="5.592583"><time>2026-05-03T02:15:49Z</time></trkpt>
</trkseg></trk>
<trk>
<name>llglg25</name>
<cmt>v</cmt>
<desc>Liège Chemin n°25 Rue du Géron / Accès privé</desc>
<link href="https://chemins.be/liege/chemin/25"/><trkseg>
<trkpt lat="50.659395" lon="5.592583"><time>2026-05-03T02:15:49Z</time></trkpt>
<trkpt lat="50.659224" lon="5.592607"><time>2026-05-03T02:25:49Z</time></trkpt>
<trkpt lat="50.659165" lon="5.592223"><time>2026-05-03T02:35:49Z</time></trkpt>
<trkpt lat="50.659013" lon="5.592191"><time>2026-05-03T02:45:49Z</time></trkpt>
<trkpt lat="50.658980" lon="5.591922"><time>2026-05-03T02:55:49Z</time></trkpt>
<trkpt lat="50.658872" lon="5.591905"><time>2026-05-03T03:05:49Z</time></trkpt>
<trkpt lat="50.658555" lon="5.591246"><time>2026-05-03T03:15:49Z</time></trkpt>
<trkpt lat="50.658533" lon="5.590807"><time>2026-05-03T03:25:49Z</time></trkpt>
<trkpt lat="50.658236" lon="5.590827"><time>2026-05-03T03:35:49Z</time></trkpt>
<trkpt lat="50.658261" lon="5.590163"><time>2026-05-03T03:45:49Z</time></trkpt>
<trkpt lat="50.657747" lon="5.589443"><time>2026-05-03T03:55:49Z</time></trkpt>
</trkseg>
</trk>
<trk>
<name>llglg26</name>
<cmt>v</cmt>
<desc>Liège Chemin n°26 Rue des Pinsons / Rue des pinsons</desc>
<link href="https://chemins.be/liege/chemin/26"/><trkseg>
<trkpt lat="50.657001" lon="5.593723"><time>2026-05-03T01:35:49Z</time></trkpt>
<trkpt lat="50.657074" lon="5.593626"><time>2026-05-03T01:45:49Z</time></trkpt>
<trkpt lat="50.657697" lon="5.593331"><time>2026-05-03T01:55:49Z</time></trkpt>
<trkpt lat="50.658303" lon="5.593036"><time>2026-05-03T02:05:49Z</time></trkpt>
<trkpt lat="50.658466" lon="5.592898"><time>2026-05-03T02:15:49Z</time></trkpt>
<trkpt lat="50.658478" lon="5.592602"><time>2026-05-03T02:25:49Z</time></trkpt>
<trkpt lat="50.658948" lon="5.592345"><time>2026-05-03T02:35:49Z</time></trkpt>
<trkpt lat="50.658986" lon="5.592190"><time>2026-05-03T02:45:49Z</time></trkpt>
</trkseg>
</trk>
<trk>
<name>llglg27</name>
<cmt>r</cmt>
<desc>Liège Chemin n°27 Rue de la Sèche / Rue des Bergers / Rue Jacquet</desc>
<link href="https://chemins.be/liege/chemin/27"/><trkseg>
<trkpt lat="50.658261" lon="5.590177"><time>2026-05-03T01:35:49Z</time></trkpt>
<trkpt lat="50.658764" lon="5.590176"><time>2026-05-03T01:45:49Z</time></trkpt>
<trkpt lat="50.659421" lon="5.589302"><time>2026-05-03T01:55:49Z</time></trkpt>
<trkpt lat="50.659432" lon="5.589118"><time>2026-05-03T02:05:49Z</time></trkpt>
<trkpt lat="50.660054" lon="5.588450"><time>2026-05-03T02:15:49Z</time></trkpt>
<trkpt lat="50.660653" lon="5.588012"><time>2026-05-03T02:25:49Z</time></trkpt>
</trkseg></trk>
<trk>
<name>llglg27</name>
<cmt>v</cmt>
<desc>Liège Chemin n°27 Rue de la Sèche / Rue des Bergers / Rue Jacquet</desc>
<link href="https://chemins.be/liege/chemin/27"/><trkseg>
<trkpt lat="50.660653" lon="5.588012"><time>2026-05-03T02:25:49Z</time></trkpt>
<trkpt lat="50.661038" lon="5.587717"><time>2026-05-03T02:35:49Z</time></trkpt>
<trkpt lat="50.661094" lon="5.587521"><time>2026-05-03T02:45:49Z</time></trkpt>
<trkpt lat="50.660898" lon="5.587318"><time>2026-05-03T02:55:49Z</time></trkpt>
<trkpt lat="50.660290" lon="5.586629"><time>2026-05-03T03:05:49Z</time></trkpt>
<trkpt lat="50.660129" lon="5.586053"><time>2026-05-03T03:15:49Z</time></trkpt>
<trkpt lat="50.659292" lon="5.586243"><time>2026-05-03T03:25:49Z</time></trkpt>
</trkseg></trk>
<trk>
<name>llglg27</name>
<cmt>r</cmt>
<desc>Liège Chemin n°27 Rue de la Sèche / Rue des Bergers / Rue Jacquet</desc>
<link href="https://chemins.be/liege/chemin/27"/><trkseg>
<trkpt lat="50.659292" lon="5.586243"><time>2026-05-03T03:25:49Z</time></trkpt>
<trkpt lat="50.658471" lon="5.586392"><time>2026-05-03T03:35:49Z</time></trkpt>
<trkpt lat="50.657030" lon="5.586666"><time>2026-05-03T03:45:49Z</time></trkpt>
</trkseg>
</trk>
<trk>
<name>llglg28</name>
<cmt>v</cmt>
<desc>Liège Chemin n°28 Rue des Sureaux / Boulevard Hector Denis / Rue du Préay</desc>
<link href="https://chemins.be/liege/chemin/28"/><trkseg>
<trkpt lat="50.661361" lon="5.595032"><time>2026-05-03T01:35:49Z</time></trkpt>
<trkpt lat="50.661535" lon="5.594766"><time>2026-05-03T01:45:49Z</time></trkpt>
<trkpt lat="50.661845" lon="5.594088"><time>2026-05-03T01:55:49Z</time></trkpt>
</trkseg></trk>
<trk>
<name>llglg28</name>
<cmt>r</cmt>
<desc>Liège Chemin n°28 Rue des Sureaux / Boulevard Hector Denis / Rue du Préay</desc>
<link href="https://chemins.be/liege/chemin/28"/><trkseg>
<trkpt lat="50.661845" lon="5.594088"><time>2026-05-03T01:55:49Z</time></trkpt>
<trkpt lat="50.662351" lon="5.593805"><time>2026-05-03T02:05:49Z</time></trkpt>
<trkpt lat="50.662482" lon="5.593075"><time>2026-05-03T02:15:49Z</time></trkpt>
<trkpt lat="50.662482" lon="5.592515"><time>2026-05-03T02:25:49Z</time></trkpt>
<trkpt lat="50.662623" lon="5.592226"><time>2026-05-03T02:35:49Z</time></trkpt>
<trkpt lat="50.663418" lon="5.590492"><time>2026-05-03T02:45:49Z</time></trkpt>
</trkseg></trk>
<trk>
<name>llglg28</name>
<cmt>v</cmt>
<desc>Liège Chemin n°28 Rue des Sureaux / Boulevard Hector Denis / Rue du Préay</desc>
<link href="https://chemins.be/liege/chemin/28"/><trkseg>
<trkpt lat="50.663418" lon="5.590492"><time>2026-05-03T02:45:49Z</time></trkpt>
<trkpt lat="50.663571" lon="5.590457"><time>2026-05-03T02:55:49Z</time></trkpt>
<trkpt lat="50.663779" lon="5.589723"><time>2026-05-03T03:05:49Z</time></trkpt>
<trkpt lat="50.663983" lon="5.589440"><time>2026-05-03T03:15:49Z</time></trkpt>
<trkpt lat="50.664291" lon="5.589672"><time>2026-05-03T03:25:49Z</time></trkpt>
</trkseg>
</trk>
<trk>
<name>llglg29</name>
<cmt>v</cmt>
<desc>Liège Chemin n°29 </desc>
<link href="https://chemins.be/liege/chemin/29"/><trkseg>
<trkpt lat="50.661417" lon="5.593046"><time>2026-05-03T01:35:49Z</time></trkpt>
<trkpt lat="50.661420" lon="5.592969"><time>2026-05-03T01:45:49Z</time></trkpt>
<trkpt lat="50.661477" lon="5.592866"><time>2026-05-03T01:55:49Z</time></trkpt>
<trkpt lat="50.661471" lon="5.592722"><time>2026-05-03T02:05:49Z</time></trkpt>
<trkpt lat="50.661331" lon="5.592229"><time>2026-05-03T02:15:49Z</time></trkpt>
</trkseg>
</trk>
<trk>
<name>llglg3</name>
<cmt>r</cmt>
<desc>Liège Chemin n°3 Rue des Petites Roches</desc>
<link href="https://chemins.be/liege/chemin/3"/><trkseg>
<trkpt lat="50.658510" lon="5.605637"><time>2026-05-03T01:35:49Z</time></trkpt>
<trkpt lat="50.658581" lon="5.605850"><time>2026-05-03T01:45:49Z</time></trkpt>
<trkpt lat="50.658737" lon="5.605974"><time>2026-05-03T01:55:49Z</time></trkpt>
<trkpt lat="50.659170" lon="5.605989"><time>2026-05-03T02:05:49Z</time></trkpt>
</trkseg></trk>
<trk>
<name>llglg3</name>
<cmt>q</cmt>
<desc>Liège Chemin n°3 Rue des Petites Roches</desc>
<link href="https://chemins.be/liege/chemin/3"/><trkseg>
<trkpt lat="50.659170" lon="5.605989"><time>2026-05-03T02:05:49Z</time></trkpt>
<trkpt lat="50.659741" lon="5.605887"><time>2026-05-03T02:15:49Z</time></trkpt>
</trkseg></trk>
<trk>
<name>llglg3</name>
<cmt>v</cmt>
<desc>Liège Chemin n°3 Rue des Petites Roches</desc>
<link href="https://chemins.be/liege/chemin/3"/><trkseg>
<trkpt lat="50.659741" lon="5.605887"><time>2026-05-03T02:15:49Z</time></trkpt>
<trkpt lat="50.659854" lon="5.605879"><time>2026-05-03T02:25:49Z</time></trkpt>
</trkseg></trk>
<trk>
<name>llglg3</name>
<cmt>r</cmt>
<desc>Liège Chemin n°3 Rue des Petites Roches</desc>
<link href="https://chemins.be/liege/chemin/3"/><trkseg>
<trkpt lat="50.659854" lon="5.605879"><time>2026-05-03T02:25:49Z</time></trkpt>
<trkpt lat="50.660109" lon="5.606331"><time>2026-05-03T02:35:49Z</time></trkpt>
<trkpt lat="50.660436" lon="5.607327"><time>2026-05-03T02:45:49Z</time></trkpt>
<trkpt lat="50.661071" lon="5.608094"><time>2026-05-03T02:55:49Z</time></trkpt>
<trkpt lat="50.661267" lon="5.608180"><time>2026-05-03T03:05:49Z</time></trkpt>
<trkpt lat="50.661818" lon="5.608091"><time>2026-05-03T03:15:49Z</time></trkpt>
</trkseg>
</trk>
<trk>
<name>llglg30</name>
<cmt>v</cmt>
<desc>Liège Chemin n°30 Rue Bairoua</desc>
<link href="https://chemins.be/liege/chemin/30"/><trkseg>
<trkpt lat="50.654000" lon="5.581526"><time>2026-05-03T01:35:49Z</time></trkpt>
<trkpt lat="50.654231" lon="5.581862"><time>2026-05-03T01:45:49Z</time></trkpt>
<trkpt lat="50.655009" lon="5.582946"><time>2026-05-03T01:55:49Z</time></trkpt>
<trkpt lat="50.655229" lon="5.584777"><time>2026-05-03T02:05:49Z</time></trkpt>
</trkseg></trk>
<trk>
<name>llglg30</name>
<cmt>r</cmt>
<desc>Liège Chemin n°30 Rue Bairoua</desc>
<link href="https://chemins.be/liege/chemin/30"/><trkseg>
<trkpt lat="50.655229" lon="5.584777"><time>2026-05-03T02:05:49Z</time></trkpt>
<trkpt lat="50.656207" lon="5.586095"><time>2026-05-03T02:15:49Z</time></trkpt>
<trkpt lat="50.657010" lon="5.586660"><time>2026-05-03T02:25:49Z</time></trkpt>
</trkseg>
</trk>
<trk>
<name>llglg31</name>
<cmt>q</cmt>
<desc>Liège Chemin n°31 </desc>
<link href="https://chemins.be/liege/chemin/31"/><trkseg>
<trkpt lat="50.656979" lon="5.573185"><time>2026-05-03T01:35:49Z</time></trkpt>
<trkpt lat="50.657730" lon="5.575690"><time>2026-05-03T01:45:49Z</time></trkpt>
</trkseg>
</trk>
<trk>
<name>llglg32</name>
<cmt>r</cmt>
<desc>Liège Chemin n°32 Rue du Général Charles Collyns</desc>
<link href="https://chemins.be/liege/chemin/32"/><trkseg>
<trkpt lat="50.656642" lon="5.573217"><time>2026-05-03T01:35:49Z</time></trkpt>
<trkpt lat="50.656750" lon="5.573676"><time>2026-05-03T01:45:49Z</time></trkpt>
</trkseg></trk>
<trk>
<name>llglg32</name>
<cmt>s</cmt>
<desc>Liège Chemin n°32 Rue du Général Charles Collyns</desc>
<link href="https://chemins.be/liege/chemin/32"/><trkseg>
<trkpt lat="50.656750" lon="5.573676"><time>2026-05-03T01:45:49Z</time></trkpt>
<trkpt lat="50.656833" lon="5.573995"><time>2026-05-03T01:55:49Z</time></trkpt>
</trkseg>
</trk>
<trk>
<name>llglg35</name>
<cmt>s</cmt>
<desc>Liège Chemin n°35 </desc>
<link href="https://chemins.be/liege/chemin/35"/><trkseg>
<trkpt lat="50.661522" lon="5.576440"><time>2026-05-03T01:35:49Z</time></trkpt>
<trkpt lat="50.661351" lon="5.578080"><time>2026-05-03T01:45:49Z</time></trkpt>
</trkseg>
</trk>
<trk>
<name>llglg36</name>
<cmt>v</cmt>
<desc>Liège Sentier n°36 </desc>
<link href="https://chemins.be/liege/sentier/36"/><trkseg>
<trkpt lat="50.663411" lon="5.601186"><time>2026-05-03T01:35:49Z</time></trkpt>
<trkpt lat="50.663672" lon="5.600705"><time>2026-05-03T01:45:49Z</time></trkpt>
<trkpt lat="50.663770" lon="5.600636"><time>2026-05-03T01:55:49Z</time></trkpt>
<trkpt lat="50.663765" lon="5.600310"><time>2026-05-03T02:05:49Z</time></trkpt>
</trkseg></trk>
<trk>
<name>llglg36</name>
<cmt>q</cmt>
<desc>Liège Sentier n°36 </desc>
<link href="https://chemins.be/liege/sentier/36"/><trkseg>
<trkpt lat="50.663765" lon="5.600310"><time>2026-05-03T02:05:49Z</time></trkpt>
<trkpt lat="50.663925" lon="5.600109"><time>2026-05-03T02:15:49Z</time></trkpt>
<trkpt lat="50.663914" lon="5.600001"><time>2026-05-03T02:25:49Z</time></trkpt>
<trkpt lat="50.664263" lon="5.599525"><time>2026-05-03T02:35:49Z</time></trkpt>
<trkpt lat="50.664486" lon="5.599220"><time>2026-05-03T02:45:49Z</time></trkpt>
<trkpt lat="50.664709" lon="5.599336"><time>2026-05-03T02:55:49Z</time></trkpt>
<trkpt lat="50.665593" lon="5.598220"><time>2026-05-03T03:05:49Z</time></trkpt>
</trkseg>
</trk>
<trk>
<name>llglg37</name>
<cmt>v</cmt>
<desc>Liège Sentier n°37 </desc>
<link href="https://chemins.be/liege/sentier/37"/><trkseg>
<trkpt lat="50.661949" lon="5.590881"><time>2026-05-03T01:35:49Z</time></trkpt>
<trkpt lat="50.662022" lon="5.590798"><time>2026-05-03T01:45:49Z</time></trkpt>
<trkpt lat="50.662075" lon="5.590814"><time>2026-05-03T01:55:49Z</time></trkpt>
<trkpt lat="50.662111" lon="5.590800"><time>2026-05-03T02:05:49Z</time></trkpt>
<trkpt lat="50.662130" lon="5.590744"><time>2026-05-03T02:15:49Z</time></trkpt>
<trkpt lat="50.662203" lon="5.590647"><time>2026-05-03T02:25:49Z</time></trkpt>
<trkpt lat="50.662422" lon="5.590313"><time>2026-05-03T02:35:49Z</time></trkpt>
<trkpt lat="50.662651" lon="5.589937"><time>2026-05-03T02:45:49Z</time></trkpt>
<trkpt lat="50.662688" lon="5.589868"><time>2026-05-03T02:55:49Z</time></trkpt>
<trkpt lat="50.662743" lon="5.589770"><time>2026-05-03T03:05:49Z</time></trkpt>
<trkpt lat="50.662972" lon="5.589352"><time>2026-05-03T03:15:49Z</time></trkpt>
<trkpt lat="50.663155" lon="5.588988"><time>2026-05-03T03:25:49Z</time></trkpt>
<trkpt lat="50.663229" lon="5.588835"><time>2026-05-03T03:35:49Z</time></trkpt>
<trkpt lat="50.663238" lon="5.588807"><time>2026-05-03T03:45:49Z</time></trkpt>
<trkpt lat="50.663304" lon="5.588497"><time>2026-05-03T03:55:49Z</time></trkpt>
<trkpt lat="50.663362" lon="5.588159"><time>2026-05-03T04:05:49Z</time></trkpt>
<trkpt lat="50.663409" lon="5.587920"><time>2026-05-03T04:15:49Z</time></trkpt>
</trkseg>
</trk>
<trk>
<name>llglg37bis</name>
<cmt>v</cmt>
<desc>Liège Chemin n°37bis </desc>
<link href="https://chemins.be/liege/chemin/37bis"/><trkseg>
<trkpt lat="50.663786" lon="5.589740"><time>2026-05-03T01:35:49Z</time></trkpt>
<trkpt lat="50.663374" lon="5.589150"><time>2026-05-03T01:45:49Z</time></trkpt>
<trkpt lat="50.663221" lon="5.588839"><time>2026-05-03T01:55:49Z</time></trkpt>
</trkseg>
</trk>
<trk>
<name>llglg38</name>
<cmt>s</cmt>
<desc>Liège Sentier n°38 Boulevard Hector Denis / Sentier Matraîfosse / Rue du Préay / Rue Walthère Dewé / Rue des Fraisiers</desc>
<link href="https://chemins.be/liege/sentier/38"/><trkseg>
<trkpt lat="50.661346" lon="5.578074"><time>2026-05-03T01:35:49Z</time></trkpt>
<trkpt lat="50.662097" lon="5.580675"><time>2026-05-03T01:45:49Z</time></trkpt>
</trkseg></trk>
<trk>
<name>llglg38</name>
<cmt>v</cmt>
<desc>Liège Sentier n°38 Boulevard Hector Denis / Sentier Matraîfosse / Rue du Préay / Rue Walthère Dewé / Rue des Fraisiers</desc>
<link href="https://chemins.be/liege/sentier/38"/><trkseg>
<trkpt lat="50.662097" lon="5.580675"><time>2026-05-03T01:45:49Z</time></trkpt>
<trkpt lat="50.662244" lon="5.581297"><time>2026-05-03T01:55:49Z</time></trkpt>
</trkseg></trk>
<trk>
<name>llglg38</name>
<cmt>b</cmt>
<desc>Liège Sentier n°38 Boulevard Hector Denis / Sentier Matraîfosse / Rue du Préay / Rue Walthère Dewé / Rue des Fraisiers</desc>
<link href="https://chemins.be/liege/sentier/38"/><trkseg>
<trkpt lat="50.662244" lon="5.581297"><time>2026-05-03T01:55:49Z</time></trkpt>
<trkpt lat="50.662507" lon="5.582409"><time>2026-05-03T02:05:49Z</time></trkpt>
</trkseg></trk>
<trk>
<name>llglg38</name>
<cmt>r</cmt>
<desc>Liège Sentier n°38 Boulevard Hector Denis / Sentier Matraîfosse / Rue du Préay / Rue Walthère Dewé / Rue des Fraisiers</desc>
<link href="https://chemins.be/liege/sentier/38"/><trkseg>
<trkpt lat="50.662507" lon="5.582409"><time>2026-05-03T02:05:49Z</time></trkpt>
<trkpt lat="50.662325" lon="5.582649"><time>2026-05-03T02:15:49Z</time></trkpt>
</trkseg></trk>
<trk>
<name>llglg38</name>
<cmt>v</cmt>
<desc>Liège Sentier n°38 Boulevard Hector Denis / Sentier Matraîfosse / Rue du Préay / Rue Walthère Dewé / Rue des Fraisiers</desc>
<link href="https://chemins.be/liege/sentier/38"/><trkseg>
<trkpt lat="50.662325" lon="5.582649"><time>2026-05-03T02:15:49Z</time></trkpt>
<trkpt lat="50.662585" lon="5.583301"><time>2026-05-03T02:25:49Z</time></trkpt>
<trkpt lat="50.662715" lon="5.585497"><time>2026-05-03T02:35:49Z</time></trkpt>
<trkpt lat="50.663364" lon="5.587961"><time>2026-05-03T02:45:49Z</time></trkpt>
<trkpt lat="50.663540" lon="5.588334"><time>2026-05-03T02:55:49Z</time></trkpt>
<trkpt lat="50.664010" lon="5.588996"><time>2026-05-03T03:05:49Z</time></trkpt>
<trkpt lat="50.664285" lon="5.589690"><time>2026-05-03T03:15:49Z</time></trkpt>
</trkseg></trk>
<trk>
<name>llglg38</name>
<cmt>r</cmt>
<desc>Liège Sentier n°38 Boulevard Hector Denis / Sentier Matraîfosse / Rue du Préay / Rue Walthère Dewé / Rue des Fraisiers</desc>
<link href="https://chemins.be/liege/sentier/38"/><trkseg>
<trkpt lat="50.664285" lon="5.589690"><time>2026-05-03T03:15:49Z</time></trkpt>
<trkpt lat="50.665069" lon="5.592390"><time>2026-05-03T03:25:49Z</time></trkpt>
<trkpt lat="50.664891" lon="5.592628"><time>2026-05-03T03:35:49Z</time></trkpt>
<trkpt lat="50.665791" lon="5.594964"><time>2026-05-03T03:45:49Z</time></trkpt>
</trkseg>
</trk>
<trk>
<name>llglg41</name>
<cmt>s</cmt>
<desc>Liège Chemin n°41 </desc>
<link href="https://chemins.be/liege/chemin/41"/><trkseg>
<trkpt lat="50.638241" lon="5.588402"><time>2026-05-03T01:35:49Z</time></trkpt>
<trkpt lat="50.639543" lon="5.588352"><time>2026-05-03T01:45:49Z</time></trkpt>
<trkpt lat="50.640106" lon="5.589682"><time>2026-05-03T01:55:49Z</time></trkpt>
</trkseg>
</trk>
<trk>
<name>llglg48</name>
<cmt>r</cmt>
<desc>Liège Chemin n°48 Rue de Seraing</desc>
<link href="https://chemins.be/liege/chemin/48"/><trkseg>
<trkpt lat="50.633985" lon="5.578055"><time>2026-05-03T01:35:49Z</time></trkpt>
<trkpt lat="50.633794" lon="5.579959"><time>2026-05-03T01:45:49Z</time></trkpt>
</trkseg></trk>
<trk>
<name>llglg48</name>
<cmt>s</cmt>
<desc>Liège Chemin n°48 Rue de Seraing</desc>
<link href="https://chemins.be/liege/chemin/48"/><trkseg>
<trkpt lat="50.633794" lon="5.579959"><time>2026-05-03T01:45:49Z</time></trkpt>
<trkpt lat="50.633621" lon="5.581043"><time>2026-05-03T01:55:49Z</time></trkpt>
<trkpt lat="50.633142" lon="5.583010"><time>2026-05-03T02:05:49Z</time></trkpt>
</trkseg>
</trk>
<trk>
<name>llglg54</name>
<cmt>r</cmt>
<desc>Liège Chemin n°54 Rue de Latour</desc>
<link href="https://chemins.be/liege/chemin/54"/><trkseg>
<trkpt lat="50.630575" lon="5.580908"><time>2026-05-03T01:35:49Z</time></trkpt>
<trkpt lat="50.630912" lon="5.580507"><time>2026-05-03T01:45:49Z</time></trkpt>
<trkpt lat="50.631525" lon="5.580268"><time>2026-05-03T01:55:49Z</time></trkpt>
</trkseg></trk>
<trk>
<name>llglg54</name>
<cmt>s</cmt>
<desc>Liège Chemin n°54 Rue de Latour</desc>
<link href="https://chemins.be/liege/chemin/54"/><trkseg>
<trkpt lat="50.631525" lon="5.580268"><time>2026-05-03T01:55:49Z</time></trkpt>
<trkpt lat="50.631885" lon="5.580320"><time>2026-05-03T02:05:49Z</time></trkpt>
<trkpt lat="50.631971" lon="5.580661"><time>2026-05-03T02:15:49Z</time></trkpt>
<trkpt lat="50.632994" lon="5.580801"><time>2026-05-03T02:25:49Z</time></trkpt>
<trkpt lat="50.634525" lon="5.581476"><time>2026-05-03T02:35:49Z</time></trkpt>
</trkseg>
</trk>
<trk>
<name>llglg56</name>
<cmt>s</cmt>
<desc>Liège Sentier n°56 </desc>
<link href="https://chemins.be/liege/sentier/56"/><trkseg>
<trkpt lat="50.633510" lon="5.575273"><time>2026-05-03T01:35:49Z</time></trkpt>
<trkpt lat="50.633167" lon="5.574187"><time>2026-05-03T01:45:49Z</time></trkpt>
<trkpt lat="50.632881" lon="5.573664"><time>2026-05-03T01:55:49Z</time></trkpt>
<trkpt lat="50.632070" lon="5.573432"><time>2026-05-03T02:05:49Z</time></trkpt>
<trkpt lat="50.631452" lon="5.573702"><time>2026-05-03T02:15:49Z</time></trkpt>
<trkpt lat="50.630480" lon="5.574629"><time>2026-05-03T02:25:49Z</time></trkpt>
<trkpt lat="50.629470" lon="5.576161"><time>2026-05-03T02:35:49Z</time></trkpt>
<trkpt lat="50.628575" lon="5.576947"><time>2026-05-03T02:45:49Z</time></trkpt>
</trkseg>
</trk>
<trk>
<name>llglg57</name>
<cmt>s</cmt>
<desc>Liège Sentier n°57 </desc>
<link href="https://chemins.be/liege/sentier/57"/><trkseg>
<trkpt lat="50.632650" lon="5.575470"><time>2026-05-03T01:35:49Z</time></trkpt>
<trkpt lat="50.632484" lon="5.575651"><time>2026-05-03T01:45:49Z</time></trkpt>
<trkpt lat="50.632247" lon="5.575174"><time>2026-05-03T01:55:49Z</time></trkpt>
<trkpt lat="50.631814" lon="5.574801"><time>2026-05-03T02:05:49Z</time></trkpt>
<trkpt lat="50.631422" lon="5.573762"><time>2026-05-03T02:15:49Z</time></trkpt>
</trkseg>
</trk>
<trk>
<name>llglg57bis</name>
<cmt>q</cmt>
<desc>Liège Sentier n°57bis </desc>
<link href="https://chemins.be/liege/sentier/57bis"/><trkseg>
<trkpt lat="50.631821" lon="5.574752"><time>2026-05-03T01:35:49Z</time></trkpt>
<trkpt lat="50.631673" lon="5.575195"><time>2026-05-03T01:45:49Z</time></trkpt>
<trkpt lat="50.631909" lon="5.575714"><time>2026-05-03T01:55:49Z</time></trkpt>
<trkpt lat="50.632012" lon="5.576166"><time>2026-05-03T02:05:49Z</time></trkpt>
</trkseg>
</trk>
<trk>
<name>llglg63</name>
<cmt>r</cmt>
<desc>Liège Sentier n°63 Rue Dos-Fanchon</desc>
<link href="https://chemins.be/liege/sentier/63"/><trkseg>
<trkpt lat="50.646240" lon="5.589052"><time>2026-05-03T01:35:49Z</time></trkpt>
<trkpt lat="50.644716" lon="5.589730"><time>2026-05-03T01:45:49Z</time></trkpt>
</trkseg>
</trk>
<trk>
<name>llglg64</name>
<cmt>r</cmt>
<desc>Liège Sentier n°64 Boulevard de la Constitution</desc>
<link href="https://chemins.be/liege/sentier/64"/><trkseg>
<trkpt lat="50.644351" lon="5.590271"><time>2026-05-03T01:35:49Z</time></trkpt>
<trkpt lat="50.644678" lon="5.591867"><time>2026-05-03T01:45:49Z</time></trkpt>
</trkseg></trk>
<trk>
<name>llglg64</name>
<cmt>s</cmt>
<desc>Liège Sentier n°64 Boulevard de la Constitution</desc>
<link href="https://chemins.be/liege/sentier/64"/><trkseg>
<trkpt lat="50.644678" lon="5.591867"><time>2026-05-03T01:45:49Z</time></trkpt>
<trkpt lat="50.644988" lon="5.594185"><time>2026-05-03T01:55:49Z</time></trkpt>
</trkseg>
</trk>
<trk>
<name>llglg65</name>
<cmt>r</cmt>
<desc>Liège Sentier n°65 </desc>
<link href="https://chemins.be/liege/sentier/65"/><trkseg>
<trkpt lat="50.640840" lon="5.588983"><time>2026-05-03T01:35:49Z</time></trkpt>
<trkpt lat="50.642696" lon="5.590863"><time>2026-05-03T01:45:49Z</time></trkpt>
</trkseg></trk>
<trk>
<name>llglg65</name>
<cmt>s</cmt>
<desc>Liège Sentier n°65 </desc>
<link href="https://chemins.be/liege/sentier/65"/><trkseg>
<trkpt lat="50.642696" lon="5.590863"><time>2026-05-03T01:45:49Z</time></trkpt>
<trkpt lat="50.643611" lon="5.592751"><time>2026-05-03T01:55:49Z</time></trkpt>
<trkpt lat="50.644993" lon="5.594210"><time>2026-05-03T02:05:49Z</time></trkpt>
</trkseg>
</trk>
<trk>
<name>llglg66</name>
<cmt>r</cmt>
<desc>Liège Sentier n°66 </desc>
<link href="https://chemins.be/liege/sentier/66"/><trkseg>
<trkpt lat="50.644384" lon="5.590236"><time>2026-05-03T01:35:49Z</time></trkpt>
<trkpt lat="50.643045" lon="5.591335"><time>2026-05-03T01:45:49Z</time></trkpt>
<trkpt lat="50.641989" lon="5.591756"><time>2026-05-03T01:55:49Z</time></trkpt>
</trkseg>
</trk>
<trk>
<name>llglg67</name>
<cmt>v</cmt>
<desc>Liège Sentier n°67 Rue de l'Usine</desc>
<link href="https://chemins.be/liege/sentier/67"/><trkseg>
<trkpt lat="50.631550" lon="5.586830"><time>2026-05-03T01:35:49Z</time></trkpt>
<trkpt lat="50.631883" lon="5.586131"><time>2026-05-03T01:45:49Z</time></trkpt>
</trkseg></trk>
<trk>
<name>llglg67</name>
<cmt>r</cmt>
<desc>Liège Sentier n°67 Rue de l'Usine</desc>
<link href="https://chemins.be/liege/sentier/67"/><trkseg>
<trkpt lat="50.631883" lon="5.586131"><time>2026-05-03T01:45:49Z</time></trkpt>
<trkpt lat="50.632062" lon="5.585637"><time>2026-05-03T01:55:49Z</time></trkpt>
</trkseg></trk>
<trk>
<name>llglg67</name>
<cmt>q</cmt>
<desc>Liège Sentier n°67 Rue de l'Usine</desc>
<link href="https://chemins.be/liege/sentier/67"/><trkseg>
<trkpt lat="50.632062" lon="5.585637"><time>2026-05-03T01:55:49Z</time></trkpt>
<trkpt lat="50.632364" lon="5.584877"><time>2026-05-03T02:05:49Z</time></trkpt>
</trkseg>
</trk>
<trk>
<name>llglg68</name>
<cmt>q</cmt>
<desc>Liège Sentier n°68 Impasse Renard</desc>
<link href="https://chemins.be/liege/sentier/68"/><trkseg>
<trkpt lat="50.629767" lon="5.582409"><time>2026-05-03T01:35:49Z</time></trkpt>
<trkpt lat="50.630590" lon="5.583696"><time>2026-05-03T01:45:49Z</time></trkpt>
<trkpt lat="50.630818" lon="5.585627"><time>2026-05-03T01:55:49Z</time></trkpt>
</trkseg></trk>
<trk>
<name>llglg68</name>
<cmt>v</cmt>
<desc>Liège Sentier n°68 Impasse Renard</desc>
<link href="https://chemins.be/liege/sentier/68"/><trkseg>
<trkpt lat="50.630818" lon="5.585627"><time>2026-05-03T01:55:49Z</time></trkpt>
<trkpt lat="50.631317" lon="5.586455"><time>2026-05-03T02:05:49Z</time></trkpt>
<trkpt lat="50.631333" lon="5.586710"><time>2026-05-03T02:15:49Z</time></trkpt>
</trkseg>
</trk>
<trk>
<name>llglg69</name>
<cmt>s</cmt>
<desc>Liège Sentier n°69 </desc>
<link href="https://chemins.be/liege/sentier/69"/><trkseg>
<trkpt lat="50.629179" lon="5.578847"><time>2026-05-03T01:35:49Z</time></trkpt>
<trkpt lat="50.628586" lon="5.576855"><time>2026-05-03T01:45:49Z</time></trkpt>
<trkpt lat="50.627666" lon="5.575268"><time>2026-05-03T01:55:49Z</time></trkpt>
</trkseg>
</trk>
<trk>
<name>llglg70</name>
<cmt>v</cmt>
<desc>Liège Sentier n°70 </desc>
<link href="https://chemins.be/liege/sentier/70"/><trkseg>
<trkpt lat="50.622961" lon="5.581293"><time>2026-05-03T01:35:49Z</time></trkpt>
<trkpt lat="50.622480" lon="5.582216"><time>2026-05-03T01:45:49Z</time></trkpt>
</trkseg></trk>
<trk>
<name>llglg70</name>
<cmt>s</cmt>
<desc>Liège Sentier n°70 </desc>
<link href="https://chemins.be/liege/sentier/70"/><trkseg>
<trkpt lat="50.622480" lon="5.582216"><time>2026-05-03T01:45:49Z</time></trkpt>
<trkpt lat="50.621423" lon="5.582181"><time>2026-05-03T01:55:49Z</time></trkpt>
</trkseg>
</trk>
<trk>
<name>llglg71</name>
<cmt>r</cmt>
<desc>Liège Sentier n°71 Boulevard Emile de Laveleye</desc>
<link href="https://chemins.be/liege/sentier/71"/><trkseg>
<trkpt lat="50.622994" lon="5.581191"><time>2026-05-03T01:35:49Z</time></trkpt>
<trkpt lat="50.623259" lon="5.582601"><time>2026-05-03T01:45:49Z</time></trkpt>
<trkpt lat="50.623452" lon="5.582926"><time>2026-05-03T01:55:49Z</time></trkpt>
</trkseg>
</trk>
<trk>
<name>llglg72</name>
<cmt>s</cmt>
<desc>Liège Sentier n°72 </desc>
<link href="https://chemins.be/liege/sentier/72"/><trkseg>
<trkpt lat="50.618505" lon="5.591961"><time>2026-05-03T01:35:49Z</time></trkpt>
<trkpt lat="50.617216" lon="5.593005"><time>2026-05-03T01:45:49Z</time></trkpt>
<trkpt lat="50.616476" lon="5.594464"><time>2026-05-03T01:55:49Z</time></trkpt>
<trkpt lat="50.616195" lon="5.595680"><time>2026-05-03T02:05:49Z</time></trkpt>
<trkpt lat="50.616431" lon="5.597275"><time>2026-05-03T02:15:49Z</time></trkpt>
<trkpt lat="50.616694" lon="5.597625"><time>2026-05-03T02:25:49Z</time></trkpt>
</trkseg>
</trk>
<trk>
<name>llglg81</name>
<cmt>r</cmt>
<desc>Liège Sentier n°81 </desc>
<link href="https://chemins.be/liege/sentier/81"/><trkseg>
<trkpt lat="50.628962" lon="5.552445"><time>2026-05-03T01:35:49Z</time></trkpt>
<trkpt lat="50.627998" lon="5.551630"><time>2026-05-03T01:45:49Z</time></trkpt>
<trkpt lat="50.627617" lon="5.551183"><time>2026-05-03T01:55:49Z</time></trkpt>
<trkpt lat="50.626996" lon="5.549905"><time>2026-05-03T02:05:49Z</time></trkpt>
<trkpt lat="50.626996" lon="5.549424"><time>2026-05-03T02:15:49Z</time></trkpt>
<trkpt lat="50.626283" lon="5.548583"><time>2026-05-03T02:25:49Z</time></trkpt>
<trkpt lat="50.625869" lon="5.547973"><time>2026-05-03T02:35:49Z</time></trkpt>
</trkseg>
</trk>
<trk>
<name>llglg82</name>
<cmt>v</cmt>
<desc>Liège Chemin n°82 </desc>
<link href="https://chemins.be/liege/chemin/82"/><trkseg>
<trkpt lat="50.631404" lon="5.547819"><time>2026-05-03T01:35:49Z</time></trkpt>
<trkpt lat="50.631641" lon="5.548423"><time>2026-05-03T01:45:49Z</time></trkpt>
</trkseg>
</trk>
<trk>
<name>llglg89</name>
<cmt>d</cmt>
<desc>Liège Chemin n°89 </desc>
<link href="https://chemins.be/liege/chemin/89"/><trkseg>
<trkpt lat="50.620436" lon="5.564245"><time>2026-05-03T01:35:49Z</time></trkpt>
<trkpt lat="50.620563" lon="5.563262"><time>2026-05-03T01:45:49Z</time></trkpt>
<trkpt lat="50.620649" lon="5.563060"><time>2026-05-03T01:55:49Z</time></trkpt>
</trkseg></trk>
<trk>
<name>llglg89</name>
<cmt>q</cmt>
<desc>Liège Chemin n°89 </desc>
<link href="https://chemins.be/liege/chemin/89"/><trkseg>
<trkpt lat="50.620649" lon="5.563060"><time>2026-05-03T01:55:49Z</time></trkpt>
<trkpt lat="50.621489" lon="5.561828"><time>2026-05-03T02:05:49Z</time></trkpt>
<trkpt lat="50.621566" lon="5.561266"><time>2026-05-03T02:15:49Z</time></trkpt>
</trkseg>
</trk>
<trk>
<name>llglg9</name>
<cmt>r</cmt>
<desc>Liège Chemin n°9 Rue Coupée</desc>
<link href="https://chemins.be/liege/chemin/9"/><trkseg>
<trkpt lat="50.660935" lon="5.582433"><time>2026-05-03T01:35:49Z</time></trkpt>
<trkpt lat="50.660976" lon="5.582777"><time>2026-05-03T01:45:49Z</time></trkpt>
<trkpt lat="50.660245" lon="5.583876"><time>2026-05-03T01:55:49Z</time></trkpt>
<trkpt lat="50.659956" lon="5.584107"><time>2026-05-03T02:05:49Z</time></trkpt>
<trkpt lat="50.659514" lon="5.583796"><time>2026-05-03T02:15:49Z</time></trkpt>
<trkpt lat="50.659316" lon="5.582777"><time>2026-05-03T02:25:49Z</time></trkpt>
</trkseg>
</trk>
<trk>
<name>llglg92</name>
<cmt>s</cmt>
<desc>Liège Chemin n°92 </desc>
<link href="https://chemins.be/liege/chemin/92"/><trkseg>
<trkpt lat="50.619049" lon="5.573919"><time>2026-05-03T01:35:49Z</time></trkpt>
<trkpt lat="50.618293" lon="5.575621"><time>2026-05-03T01:45:49Z</time></trkpt>
<trkpt lat="50.618261" lon="5.578518"><time>2026-05-03T01:55:49Z</time></trkpt>
</trkseg>
</trk>
<trk>
<name>llglg95</name>
<cmt>s</cmt>
<desc>Liège Chemin n°95 </desc>
<link href="https://chemins.be/liege/chemin/95"/><trkseg>
<trkpt lat="50.625548" lon="5.567972"><time>2026-05-03T01:35:49Z</time></trkpt>
<trkpt lat="50.625030" lon="5.568558"><time>2026-05-03T01:45:49Z</time></trkpt>
<trkpt lat="50.624193" lon="5.568480"><time>2026-05-03T01:55:49Z</time></trkpt>
<trkpt lat="50.623458" lon="5.569359"><time>2026-05-03T02:05:49Z</time></trkpt>
<trkpt lat="50.622868" lon="5.569595"><time>2026-05-03T02:15:49Z</time></trkpt>
</trkseg>
</trk>
<trk>
<name>llglg98</name>
<cmt>v</cmt>
<desc>Liège Chemin n°98 Rue Chauve-Souris</desc>
<link href="https://chemins.be/liege/chemin/98"/><trkseg>
<trkpt lat="50.632436" lon="5.551948"><time>2026-05-03T01:35:49Z</time></trkpt>
<trkpt lat="50.632316" lon="5.552256"><time>2026-05-03T01:45:49Z</time></trkpt>
<trkpt lat="50.632269" lon="5.552537"><time>2026-05-03T01:55:49Z</time></trkpt>
<trkpt lat="50.632205" lon="5.553469"><time>2026-05-03T02:05:49Z</time></trkpt>
<trkpt lat="50.631847" lon="5.554223"><time>2026-05-03T02:15:49Z</time></trkpt>
<trkpt lat="50.631396" lon="5.555229"><time>2026-05-03T02:25:49Z</time></trkpt>
</trkseg></trk>
<trk>
<name>llglg98</name>
<cmt>r</cmt>
<desc>Liège Chemin n°98 Rue Chauve-Souris</desc>
<link href="https://chemins.be/liege/chemin/98"/><trkseg>
<trkpt lat="50.631396" lon="5.555229"><time>2026-05-03T02:25:49Z</time></trkpt>
<trkpt lat="50.631054" lon="5.556140"><time>2026-05-03T02:35:49Z</time></trkpt>
</trkseg>
</trk>
<trk>
<name>llglgi1</name>
<cmt>v</cmt>
<desc>Liège Sentier n°i1 Sentier du Haut-Pré</desc>
<link href="https://chemins.be/liege/sentier/i1"/><trkseg>
<trkpt lat="50.645680" lon="5.551148"><time>2026-05-03T01:35:49Z</time></trkpt>
<trkpt lat="50.645785" lon="5.550543"><time>2026-05-03T01:45:49Z</time></trkpt>
<trkpt lat="50.646317" lon="5.549411"><time>2026-05-03T01:55:49Z</time></trkpt>
<trkpt lat="50.646363" lon="5.549313"><time>2026-05-03T02:05:49Z</time></trkpt>
<trkpt lat="50.646648" lon="5.548712"><time>2026-05-03T02:15:49Z</time></trkpt>
<trkpt lat="50.646859" lon="5.548279"><time>2026-05-03T02:25:49Z</time></trkpt>
<trkpt lat="50.647226" lon="5.547624"><time>2026-05-03T02:35:49Z</time></trkpt>
<trkpt lat="50.647399" lon="5.547359"><time>2026-05-03T02:45:49Z</time></trkpt>
</trkseg>
</trk>
<trk>
<name>llglgi10</name>
<cmt>v</cmt>
<desc>Liège Sentier n°i10 Chemin Michel Gobiet</desc>
<link href="https://chemins.be/liege/sentier/i10"/><trkseg>
<trkpt lat="50.657102" lon="5.565763"><time>2026-05-03T01:35:49Z</time></trkpt>
<trkpt lat="50.657282" lon="5.565781"><time>2026-05-03T01:45:49Z</time></trkpt>
<trkpt lat="50.657472" lon="5.565602"><time>2026-05-03T01:55:49Z</time></trkpt>
<trkpt lat="50.657690" lon="5.565452"><time>2026-05-03T02:05:49Z</time></trkpt>
<trkpt lat="50.657771" lon="5.565412"><time>2026-05-03T02:15:49Z</time></trkpt>
<trkpt lat="50.657816" lon="5.565413"><time>2026-05-03T02:25:49Z</time></trkpt>
<trkpt lat="50.658090" lon="5.565915"><time>2026-05-03T02:35:49Z</time></trkpt>
<trkpt lat="50.658176" lon="5.566271"><time>2026-05-03T02:45:49Z</time></trkpt>
</trkseg>
</trk>
<trk>
<name>llglgi100</name>
<cmt>v</cmt>
<desc>Liège Sentier n°i100 </desc>
<link href="https://chemins.be/liege/sentier/i100"/><trkseg>
<trkpt lat="50.650950" lon="5.553273"><time>2026-05-03T01:35:49Z</time></trkpt>
<trkpt lat="50.650781" lon="5.553201"><time>2026-05-03T01:45:49Z</time></trkpt>
<trkpt lat="50.650569" lon="5.553225"><time>2026-05-03T01:55:49Z</time></trkpt>
<trkpt lat="50.650455" lon="5.552786"><time>2026-05-03T02:05:49Z</time></trkpt>
<trkpt lat="50.650534" lon="5.552668"><time>2026-05-03T02:15:49Z</time></trkpt>
<trkpt lat="50.650425" lon="5.552502"><time>2026-05-03T02:25:49Z</time></trkpt>
<trkpt lat="50.650206" lon="5.552109"><time>2026-05-03T02:35:49Z</time></trkpt>
<trkpt lat="50.650091" lon="5.551556"><time>2026-05-03T02:45:49Z</time></trkpt>
<trkpt lat="50.650463" lon="5.551490"><time>2026-05-03T02:55:49Z</time></trkpt>
<trkpt lat="50.650578" lon="5.551099"><time>2026-05-03T03:05:49Z</time></trkpt>
<trkpt lat="50.650757" lon="5.551122"><time>2026-05-03T03:15:49Z</time></trkpt>
<trkpt lat="50.651001" lon="5.551485"><time>2026-05-03T03:25:49Z</time></trkpt>
</trkseg>
</trk>
<trk>
<name>llglgi11</name>
<cmt>q</cmt>
<desc>Liège Sentier n°i11 </desc>
<link href="https://chemins.be/liege/sentier/i11"/><trkseg>
<trkpt lat="50.657427" lon="5.568232"><time>2026-05-03T01:35:49Z</time></trkpt>
<trkpt lat="50.657233" lon="5.567888"><time>2026-05-03T01:45:49Z</time></trkpt>
<trkpt lat="50.657343" lon="5.567692"><time>2026-05-03T01:55:49Z</time></trkpt>
<trkpt lat="50.657334" lon="5.567650"><time>2026-05-03T02:05:49Z</time></trkpt>
<trkpt lat="50.657167" lon="5.567320"><time>2026-05-03T02:15:49Z</time></trkpt>
</trkseg>
</trk>
<trk>
<name>llglgi12</name>
<cmt>v</cmt>
<desc>Liège Chemin n°i12 Sentier de la Bure du Rossignol</desc>
<link href="https://chemins.be/liege/chemin/i12"/><trkseg>
<trkpt lat="50.661496" lon="5.586866"><time>2026-05-03T01:35:49Z</time></trkpt>
<trkpt lat="50.662078" lon="5.586245"><time>2026-05-03T01:45:49Z</time></trkpt>
<trkpt lat="50.662726" lon="5.585314"><time>2026-05-03T01:55:49Z</time></trkpt>
</trkseg>
</trk>
<trk>
<name>llglgi13</name>
<cmt>v</cmt>
<desc>Liège Chemin n°i13 </desc>
<link href="https://chemins.be/liege/chemin/i13"/><trkseg>
<trkpt lat="50.658085" lon="5.564628"><time>2026-05-03T01:35:49Z</time></trkpt>
<trkpt lat="50.657983" lon="5.564936"><time>2026-05-03T01:45:49Z</time></trkpt>
<trkpt lat="50.657938" lon="5.564935"><time>2026-05-03T01:55:49Z</time></trkpt>
<trkpt lat="50.657919" lon="5.564977"><time>2026-05-03T02:05:49Z</time></trkpt>
<trkpt lat="50.657937" lon="5.565020"><time>2026-05-03T02:15:49Z</time></trkpt>
<trkpt lat="50.657899" lon="5.565217"><time>2026-05-03T02:25:49Z</time></trkpt>
<trkpt lat="50.657825" lon="5.565413"><time>2026-05-03T02:35:49Z</time></trkpt>
</trkseg>
</trk>
<trk>
<name>llglgi14</name>
<cmt>v</cmt>
<desc>Liège Sentier n°i14 Rue Basse Sauvenière</desc>
<link href="https://chemins.be/liege/sentier/i14"/><trkseg>
<trkpt lat="50.643691" lon="5.564560"><time>2026-05-03T01:35:49Z</time></trkpt>
<trkpt lat="50.643654" lon="5.564630"><time>2026-05-03T01:45:49Z</time></trkpt>
<trkpt lat="50.643464" lon="5.564795"><time>2026-05-03T01:55:49Z</time></trkpt>
<trkpt lat="50.643473" lon="5.565601"><time>2026-05-03T02:05:49Z</time></trkpt>
<trkpt lat="50.643908" lon="5.566135"><time>2026-05-03T02:15:49Z</time></trkpt>
<trkpt lat="50.644323" lon="5.566923"><time>2026-05-03T02:25:49Z</time></trkpt>
<trkpt lat="50.644526" lon="5.568173"><time>2026-05-03T02:35:49Z</time></trkpt>
<trkpt lat="50.644567" lon="5.568556"><time>2026-05-03T02:45:49Z</time></trkpt>
<trkpt lat="50.644559" lon="5.569277"><time>2026-05-03T02:55:49Z</time></trkpt>
</trkseg></trk>
<trk>
<name>llglgi14</name>
<cmt>q</cmt>
<desc>Liège Sentier n°i14 Rue Basse Sauvenière</desc>
<link href="https://chemins.be/liege/sentier/i14"/><trkseg>
<trkpt lat="50.644559" lon="5.569277"><time>2026-05-03T02:55:49Z</time></trkpt>
<trkpt lat="50.644553" lon="5.569899"><time>2026-05-03T03:05:49Z</time></trkpt>
</trkseg></trk>
<trk>
<name>llglgi14</name>
<cmt>v</cmt>
<desc>Liège Sentier n°i14 Rue Basse Sauvenière</desc>
<link href="https://chemins.be/liege/sentier/i14"/><trkseg>
<trkpt lat="50.644553" lon="5.569899"><time>2026-05-03T03:05:49Z</time></trkpt>
<trkpt lat="50.644493" lon="5.570491"><time>2026-05-03T03:15:49Z</time></trkpt>
<trkpt lat="50.644481" lon="5.570816"><time>2026-05-03T03:25:49Z</time></trkpt>
</trkseg>
</trk>
<trk>
<name>llglgi15</name>
<cmt>v</cmt>
<desc>Liège Sentier n°i15 Favechamps</desc>
<link href="https://chemins.be/liege/sentier/i15"/><trkseg>
<trkpt lat="50.652723" lon="5.573699"><time>2026-05-03T01:35:49Z</time></trkpt>
<trkpt lat="50.652714" lon="5.573656"><time>2026-05-03T01:45:49Z</time></trkpt>
<trkpt lat="50.652652" lon="5.573584"><time>2026-05-03T01:55:49Z</time></trkpt>
<trkpt lat="50.652290" lon="5.572938"><time>2026-05-03T02:05:49Z</time></trkpt>
<trkpt lat="50.652218" lon="5.572908"><time>2026-05-03T02:15:49Z</time></trkpt>
<trkpt lat="50.652005" lon="5.572634"><time>2026-05-03T02:25:49Z</time></trkpt>
<trkpt lat="50.651909" lon="5.572363"><time>2026-05-03T02:35:49Z</time></trkpt>
<trkpt lat="50.651580" lon="5.572029"><time>2026-05-03T02:45:49Z</time></trkpt>
<trkpt lat="50.651127" lon="5.571466"><time>2026-05-03T02:55:49Z</time></trkpt>
<trkpt lat="50.650719" lon="5.570932"><time>2026-05-03T03:05:49Z</time></trkpt>
<trkpt lat="50.650649" lon="5.570775"><time>2026-05-03T03:15:49Z</time></trkpt>
<trkpt lat="50.650595" lon="5.570688"><time>2026-05-03T03:25:49Z</time></trkpt>
<trkpt lat="50.650499" lon="5.570683"><time>2026-05-03T03:35:49Z</time></trkpt>
<trkpt lat="50.650477" lon="5.570541"><time>2026-05-03T03:45:49Z</time></trkpt>
</trkseg></trk>
<trk>
<name>llglgi15</name>
<cmt>b</cmt>
<desc>Liège Sentier n°i15 Favechamps</desc>
<link href="https://chemins.be/liege/sentier/i15"/><trkseg>
<trkpt lat="50.650477" lon="5.570541"><time>2026-05-03T03:45:49Z</time></trkpt>
<trkpt lat="50.650181" lon="5.569943"><time>2026-05-03T03:55:49Z</time></trkpt>
<trkpt lat="50.650029" lon="5.569840"><time>2026-05-03T04:05:49Z</time></trkpt>
</trkseg>
</trk>
<trk>
<name>llglgi16</name>
<cmt>v</cmt>
<desc>Liège Sentier n°i16 Rue de la Montagne</desc>
<link href="https://chemins.be/liege/sentier/i16"/><trkseg>
<trkpt lat="50.644360" lon="5.568579"><time>2026-05-03T01:35:49Z</time></trkpt>
<trkpt lat="50.644585" lon="5.568570"><time>2026-05-03T01:45:49Z</time></trkpt>
<trkpt lat="50.644846" lon="5.568549"><time>2026-05-03T01:55:49Z</time></trkpt>
<trkpt lat="50.645252" lon="5.568333"><time>2026-05-03T02:05:49Z</time></trkpt>
<trkpt lat="50.645659" lon="5.568173"><time>2026-05-03T02:15:49Z</time></trkpt>
</trkseg>
</trk>
<trk>
<name>llglgi17</name>
<cmt>v</cmt>
<desc>Liège Chemin n°i17 chemin du Champ des Oiseaux</desc>
<link href="https://chemins.be/liege/chemin/i17"/><trkseg>
<trkpt lat="50.622678" lon="5.562855"><time>2026-05-03T01:35:49Z</time></trkpt>
<trkpt lat="50.622820" lon="5.563042"><time>2026-05-03T01:45:49Z</time></trkpt>
<trkpt lat="50.622854" lon="5.563226"><time>2026-05-03T01:55:49Z</time></trkpt>
<trkpt lat="50.622861" lon="5.563410"><time>2026-05-03T02:05:49Z</time></trkpt>
<trkpt lat="50.622759" lon="5.563719"><time>2026-05-03T02:15:49Z</time></trkpt>
<trkpt lat="50.622785" lon="5.563776"><time>2026-05-03T02:25:49Z</time></trkpt>
<trkpt lat="50.622857" lon="5.563792"><time>2026-05-03T02:35:49Z</time></trkpt>
<trkpt lat="50.622957" lon="5.563724"><time>2026-05-03T02:45:49Z</time></trkpt>
<trkpt lat="50.623040" lon="5.563500"><time>2026-05-03T02:55:49Z</time></trkpt>
<trkpt lat="50.623088" lon="5.563218"><time>2026-05-03T03:05:49Z</time></trkpt>
<trkpt lat="50.623197" lon="5.563037"><time>2026-05-03T03:15:49Z</time></trkpt>
<trkpt lat="50.623395" lon="5.563071"><time>2026-05-03T03:25:49Z</time></trkpt>
<trkpt lat="50.623500" lon="5.563299"><time>2026-05-03T03:35:49Z</time></trkpt>
<trkpt lat="50.623500" lon="5.563370"><time>2026-05-03T03:45:49Z</time></trkpt>
<trkpt lat="50.623343" lon="5.563790"><time>2026-05-03T03:55:49Z</time></trkpt>
<trkpt lat="50.623277" lon="5.564085"><time>2026-05-03T04:05:49Z</time></trkpt>
<trkpt lat="50.623346" lon="5.564356"><time>2026-05-03T04:15:49Z</time></trkpt>
</trkseg>
</trk>
<trk>
<name>llglgi18</name>
<cmt>v</cmt>
<desc>Liège Sentier n°i18 Passerelle Saucy</desc>
<link href="https://chemins.be/liege/sentier/i18"/><trkseg>
<trkpt lat="50.641458" lon="5.577073"><time>2026-05-03T01:35:49Z</time></trkpt>
<trkpt lat="50.641071" lon="5.578873"><time>2026-05-03T01:45:49Z</time></trkpt>
</trkseg>
</trk>
<trk>
<name>llglgi19</name>
<cmt>v</cmt>
<desc>Liège Sentier n°i19 Rue de la Rose</desc>
<link href="https://chemins.be/liege/sentier/i19"/><trkseg>
<trkpt lat="50.646236" lon="5.578468"><time>2026-05-03T01:35:49Z</time></trkpt>
<trkpt lat="50.647005" lon="5.578007"><time>2026-05-03T01:45:49Z</time></trkpt>
</trkseg>
</trk>
<trk>
<name>llglgi2</name>
<cmt>v</cmt>
<desc>Liège Chemin n°i2 Rue des Myrtilles</desc>
<link href="https://chemins.be/liege/chemin/i2"/><trkseg>
<trkpt lat="50.664780" lon="5.604662"><time>2026-05-03T01:35:49Z</time></trkpt>
<trkpt lat="50.664682" lon="5.604468"><time>2026-05-03T01:45:49Z</time></trkpt>
<trkpt lat="50.664622" lon="5.604305"><time>2026-05-03T01:55:49Z</time></trkpt>
<trkpt lat="50.664493" lon="5.603948"><time>2026-05-03T02:05:49Z</time></trkpt>
<trkpt lat="50.664318" lon="5.603703"><time>2026-05-03T02:15:49Z</time></trkpt>
<trkpt lat="50.664029" lon="5.603207"><time>2026-05-03T02:25:49Z</time></trkpt>
<trkpt lat="50.664028" lon="5.603119"><time>2026-05-03T02:35:49Z</time></trkpt>
<trkpt lat="50.663899" lon="5.602899"><time>2026-05-03T02:45:49Z</time></trkpt>
<trkpt lat="50.663784" lon="5.602755"><time>2026-05-03T02:55:49Z</time></trkpt>
<trkpt lat="50.663579" lon="5.602281"><time>2026-05-03T03:05:49Z</time></trkpt>
<trkpt lat="50.663467" lon="5.602167"><time>2026-05-03T03:15:49Z</time></trkpt>
<trkpt lat="50.663387" lon="5.602023"><time>2026-05-03T03:25:49Z</time></trkpt>
<trkpt lat="50.663344" lon="5.601866"><time>2026-05-03T03:35:49Z</time></trkpt>
<trkpt lat="50.663221" lon="5.601594"><time>2026-05-03T03:45:49Z</time></trkpt>
</trkseg>
</trk>
<trk>
<name>llglgi20</name>
<cmt>v</cmt>
<desc>Liège Sentier n°i20 Montagne de Bueren</desc>
<link href="https://chemins.be/liege/sentier/i20"/><trkseg>
<trkpt lat="50.647598" lon="5.578008"><time>2026-05-03T01:35:49Z</time></trkpt>
<trkpt lat="50.648899" lon="5.576543"><time>2026-05-03T01:45:49Z</time></trkpt>
</trkseg>
</trk>
<trk>
<name>llglgi21</name>
<cmt>v</cmt>
<desc>Liège Sentier n°i21 </desc>
<link href="https://chemins.be/liege/sentier/i21"/><trkseg>
<trkpt lat="50.661807" lon="5.608045"><time>2026-05-03T01:35:49Z</time></trkpt>
<trkpt lat="50.661813" lon="5.607907"><time>2026-05-03T01:45:49Z</time></trkpt>
<trkpt lat="50.661342" lon="5.608078"><time>2026-05-03T01:55:49Z</time></trkpt>
<trkpt lat="50.661097" lon="5.607997"><time>2026-05-03T02:05:49Z</time></trkpt>
<trkpt lat="50.660740" lon="5.606622"><time>2026-05-03T02:15:49Z</time></trkpt>
<trkpt lat="50.660658" lon="5.605842"><time>2026-05-03T02:25:49Z</time></trkpt>
<trkpt lat="50.661186" lon="5.605290"><time>2026-05-03T02:35:49Z</time></trkpt>
<trkpt lat="50.661528" lon="5.605256"><time>2026-05-03T02:45:49Z</time></trkpt>
</trkseg>
</trk>
<trk>
<name>llglgi22</name>
<cmt>v</cmt>
<desc>Liège Chemin n°i22 Passage Lemonnier</desc>
<link href="https://chemins.be/liege/chemin/i22"/><trkseg>
<trkpt lat="50.641952" lon="5.571006"><time>2026-05-03T01:35:49Z</time></trkpt>
<trkpt lat="50.642174" lon="5.572157"><time>2026-05-03T01:45:49Z</time></trkpt>
<trkpt lat="50.642588" lon="5.573030"><time>2026-05-03T01:55:49Z</time></trkpt>
</trkseg>
</trk>
<trk>
<name>llglgi23</name>
<cmt>v</cmt>
<desc>Liège Chemin n°i23 Rue du Mont-de-Piété</desc>
<link href="https://chemins.be/liege/chemin/i23"/><trkseg>
<trkpt lat="50.647579" lon="5.584145"><time>2026-05-03T01:35:49Z</time></trkpt>
<trkpt lat="50.647416" lon="5.584268"><time>2026-05-03T01:45:49Z</time></trkpt>
<trkpt lat="50.647208" lon="5.584376"><time>2026-05-03T01:55:49Z</time></trkpt>
<trkpt lat="50.646857" lon="5.584452"><time>2026-05-03T02:05:49Z</time></trkpt>
</trkseg>
</trk>
<trk>
<name>llglgi24</name>
<cmt>v</cmt>
<desc>Liège Sentier n°i24 </desc>
<link href="https://chemins.be/liege/sentier/i24"/><trkseg>
<trkpt lat="50.661986" lon="5.603613"><time>2026-05-03T01:35:49Z</time></trkpt>
<trkpt lat="50.662088" lon="5.603319"><time>2026-05-03T01:45:49Z</time></trkpt>
<trkpt lat="50.663221" lon="5.601608"><time>2026-05-03T01:55:49Z</time></trkpt>
<trkpt lat="50.663394" lon="5.601387"><time>2026-05-03T02:05:49Z</time></trkpt>
<trkpt lat="50.663434" lon="5.601006"><time>2026-05-03T02:15:49Z</time></trkpt>
<trkpt lat="50.663629" lon="5.600417"><time>2026-05-03T02:25:49Z</time></trkpt>
<trkpt lat="50.663677" lon="5.599272"><time>2026-05-03T02:35:49Z</time></trkpt>
<trkpt lat="50.663822" lon="5.598697"><time>2026-05-03T02:45:49Z</time></trkpt>
</trkseg>
</trk>
<trk>
<name>llglgi25</name>
<cmt>v</cmt>
<desc>Liège Sentier n°i25 Degrés des Tisserands</desc>
<link href="https://chemins.be/liege/sentier/i25"/><trkseg>
<trkpt lat="50.644395" lon="5.563362"><time>2026-05-03T01:35:49Z</time></trkpt>
<trkpt lat="50.644675" lon="5.563256"><time>2026-05-03T01:45:49Z</time></trkpt>
<trkpt lat="50.644720" lon="5.563257"><time>2026-05-03T01:55:49Z</time></trkpt>
<trkpt lat="50.644953" lon="5.563362"><time>2026-05-03T02:05:49Z</time></trkpt>
<trkpt lat="50.645373" lon="5.563627"><time>2026-05-03T02:15:49Z</time></trkpt>
<trkpt lat="50.645498" lon="5.563658"><time>2026-05-03T02:25:49Z</time></trkpt>
</trkseg>
</trk>
<trk>
<name>llglgi26</name>
<cmt>v</cmt>
<desc>Liège Sentier n°i26 Thier de la Fontaine</desc>
<link href="https://chemins.be/liege/sentier/i26"/><trkseg>
<trkpt lat="50.643089" lon="5.563654"><time>2026-05-03T01:35:49Z</time></trkpt>
<trkpt lat="50.643100" lon="5.564276"><time>2026-05-03T01:45:49Z</time></trkpt>
<trkpt lat="50.643091" lon="5.564304"><time>2026-05-03T01:55:49Z</time></trkpt>
<trkpt lat="50.642785" lon="5.564367"><time>2026-05-03T02:05:49Z</time></trkpt>
<trkpt lat="50.642667" lon="5.564435"><time>2026-05-03T02:15:49Z</time></trkpt>
</trkseg>
</trk>
<trk>
<name>llglgi27</name>
<cmt>v</cmt>
<desc>Liège Sentier n°i27 Sentier des Coteaux</desc>
<link href="https://chemins.be/liege/sentier/i27"/><trkseg>
<trkpt lat="50.649146" lon="5.582936"><time>2026-05-03T01:35:49Z</time></trkpt>
<trkpt lat="50.649690" lon="5.582945"><time>2026-05-03T01:45:49Z</time></trkpt>
<trkpt lat="50.649968" lon="5.582593"><time>2026-05-03T01:55:49Z</time></trkpt>
<trkpt lat="50.650104" lon="5.582626"><time>2026-05-03T02:05:49Z</time></trkpt>
<trkpt lat="50.650150" lon="5.582500"><time>2026-05-03T02:15:49Z</time></trkpt>
<trkpt lat="50.650062" lon="5.582272"><time>2026-05-03T02:25:49Z</time></trkpt>
<trkpt lat="50.650171" lon="5.582232"><time>2026-05-03T02:35:49Z</time></trkpt>
<trkpt lat="50.650455" lon="5.582693"><time>2026-05-03T02:45:49Z</time></trkpt>
<trkpt lat="50.650372" lon="5.581898"><time>2026-05-03T02:55:49Z</time></trkpt>
<trkpt lat="50.650612" lon="5.582130"><time>2026-05-03T03:05:49Z</time></trkpt>
<trkpt lat="50.650502" lon="5.581519"><time>2026-05-03T03:15:49Z</time></trkpt>
<trkpt lat="50.650705" lon="5.581878"><time>2026-05-03T03:25:49Z</time></trkpt>
<trkpt lat="50.651024" lon="5.582282"><time>2026-05-03T03:35:49Z</time></trkpt>
<trkpt lat="50.650993" lon="5.581871"><time>2026-05-03T03:45:49Z</time></trkpt>
<trkpt lat="50.650791" lon="5.581357"><time>2026-05-03T03:55:49Z</time></trkpt>
<trkpt lat="50.650747" lon="5.581285"><time>2026-05-03T04:05:49Z</time></trkpt>
<trkpt lat="50.650748" lon="5.581200"><time>2026-05-03T04:15:49Z</time></trkpt>
<trkpt lat="50.650784" lon="5.581215"><time>2026-05-03T04:25:49Z</time></trkpt>
<trkpt lat="50.651050" lon="5.581505"><time>2026-05-03T04:35:49Z</time></trkpt>
<trkpt lat="50.651298" lon="5.581922"><time>2026-05-03T04:45:49Z</time></trkpt>
<trkpt lat="50.651273" lon="5.581723"><time>2026-05-03T04:55:49Z</time></trkpt>
<trkpt lat="50.650862" lon="5.580567"><time>2026-05-03T05:05:49Z</time></trkpt>
<trkpt lat="50.651005" lon="5.580670"><time>2026-05-03T05:15:49Z</time></trkpt>
<trkpt lat="50.651263" lon="5.580945"><time>2026-05-03T05:25:49Z</time></trkpt>
<trkpt lat="50.651547" lon="5.581320"><time>2026-05-03T05:35:49Z</time></trkpt>
<trkpt lat="50.651619" lon="5.581265"><time>2026-05-03T05:45:49Z</time></trkpt>
<trkpt lat="50.651515" lon="5.580909"><time>2026-05-03T05:55:49Z</time></trkpt>
<trkpt lat="50.651552" lon="5.580839"><time>2026-05-03T06:05:49Z</time></trkpt>
</trkseg>
</trk>
<trk>
<name>llglgi28</name>
<cmt>v</cmt>
<desc>Liège Chemin n°i28 Rue Tête de Boeuf / Rue des Célestines</desc>
<link href="https://chemins.be/liege/chemin/i28"/><trkseg>
<trkpt lat="50.640510" lon="5.569640"><time>2026-05-03T01:35:49Z</time></trkpt>
<trkpt lat="50.641236" lon="5.568923"><time>2026-05-03T01:45:49Z</time></trkpt>
<trkpt lat="50.642019" lon="5.567968"><time>2026-05-03T01:55:49Z</time></trkpt>
</trkseg>
</trk>
<trk>
<name>llglgi29</name>
<cmt>v</cmt>
<desc>Liège Sentier n°i29 </desc>
<link href="https://chemins.be/liege/sentier/i29"/><trkseg>
<trkpt lat="50.659787" lon="5.569565"><time>2026-05-03T01:35:50Z</time></trkpt>
<trkpt lat="50.659804" lon="5.569679"><time>2026-05-03T01:45:50Z</time></trkpt>
<trkpt lat="50.659944" lon="5.570107"><time>2026-05-03T01:55:50Z</time></trkpt>
<trkpt lat="50.660160" lon="5.570947"><time>2026-05-03T02:05:50Z</time></trkpt>
</trkseg>
</trk>
<trk>
<name>llglgi3</name>
<cmt>v</cmt>
<desc>Liège Sentier n°i3 </desc>
<link href="https://chemins.be/liege/sentier/i3"/><trkseg>
<trkpt lat="50.658436" lon="5.603407"><time>2026-05-03T01:35:50Z</time></trkpt>
<trkpt lat="50.658202" lon="5.603500"><time>2026-05-03T01:45:50Z</time></trkpt>
<trkpt lat="50.658102" lon="5.603568"><time>2026-05-03T01:55:50Z</time></trkpt>
<trkpt lat="50.657992" lon="5.603777"><time>2026-05-03T02:05:50Z</time></trkpt>
<trkpt lat="50.657854" lon="5.604057"><time>2026-05-03T02:15:50Z</time></trkpt>
<trkpt lat="50.657716" lon="5.604364"><time>2026-05-03T02:25:50Z</time></trkpt>
<trkpt lat="50.657616" lon="5.604432"><time>2026-05-03T02:35:50Z</time></trkpt>
<trkpt lat="50.657616" lon="5.604432"><time>2026-05-03T02:45:50Z</time></trkpt>
<trkpt lat="50.657616" lon="5.604432"><time>2026-05-03T02:55:50Z</time></trkpt>
<trkpt lat="50.657464" lon="5.604372"><time>2026-05-03T03:05:50Z</time></trkpt>
<trkpt lat="50.657330" lon="5.604326"><time>2026-05-03T03:15:50Z</time></trkpt>
<trkpt lat="50.657114" lon="5.604348"><time>2026-05-03T03:25:50Z</time></trkpt>
<trkpt lat="50.656908" lon="5.604272"><time>2026-05-03T03:35:50Z</time></trkpt>
<trkpt lat="50.656801" lon="5.604114"><time>2026-05-03T03:45:50Z</time></trkpt>
<trkpt lat="50.656672" lon="5.603630"><time>2026-05-03T03:55:50Z</time></trkpt>
<trkpt lat="50.656624" lon="5.603020"><time>2026-05-03T04:05:50Z</time></trkpt>
<trkpt lat="50.656586" lon="5.602425"><time>2026-05-03T04:15:50Z</time></trkpt>
<trkpt lat="50.656550" lon="5.601491"><time>2026-05-03T04:25:50Z</time></trkpt>
<trkpt lat="50.656558" lon="5.600798"><time>2026-05-03T04:35:50Z</time></trkpt>
<trkpt lat="50.656566" lon="5.600006"><time>2026-05-03T04:45:50Z</time></trkpt>
<trkpt lat="50.656623" lon="5.599710"><time>2026-05-03T04:55:50Z</time></trkpt>
<trkpt lat="50.656764" lon="5.599191"><time>2026-05-03T05:05:50Z</time></trkpt>
<trkpt lat="50.656914" lon="5.598586"><time>2026-05-03T05:15:50Z</time></trkpt>
<trkpt lat="50.656978" lon="5.598503"><time>2026-05-03T05:25:50Z</time></trkpt>
<trkpt lat="50.657105" lon="5.598337"><time>2026-05-03T05:35:50Z</time></trkpt>
<trkpt lat="50.657296" lon="5.598130"><time>2026-05-03T05:45:50Z</time></trkpt>
<trkpt lat="50.657504" lon="5.598008"><time>2026-05-03T05:55:50Z</time></trkpt>
<trkpt lat="50.657722" lon="5.597844"><time>2026-05-03T06:05:50Z</time></trkpt>
<trkpt lat="50.657785" lon="5.597831"><time>2026-05-03T06:15:50Z</time></trkpt>
<trkpt lat="50.657891" lon="5.597961"><time>2026-05-03T06:25:50Z</time></trkpt>
</trkseg>
</trk>
<trk>
<name>llglgi30</name>
<cmt>v</cmt>
<desc>Liège Sentier n°i30 </desc>
<link href="https://chemins.be/liege/sentier/i30"/><trkseg>
<trkpt lat="50.631320" lon="5.547838"><time>2026-05-03T01:35:50Z</time></trkpt>
<trkpt lat="50.631156" lon="5.547911"><time>2026-05-03T01:45:50Z</time></trkpt>
<trkpt lat="50.630823" lon="5.547808"><time>2026-05-03T01:55:50Z</time></trkpt>
<trkpt lat="50.630550" lon="5.547711"><time>2026-05-03T02:05:50Z</time></trkpt>
</trkseg>
</trk>
<trk>
<name>llglgi31</name>
<cmt>v</cmt>
<desc>Liège Chemin n°i31 </desc>
<link href="https://chemins.be/liege/chemin/i31"/><trkseg>
<trkpt lat="50.640694" lon="5.570229"><time>2026-05-03T01:35:50Z</time></trkpt>
<trkpt lat="50.641516" lon="5.569444"><time>2026-05-03T01:45:50Z</time></trkpt>
<trkpt lat="50.642308" lon="5.568508"><time>2026-05-03T01:55:50Z</time></trkpt>
</trkseg>
</trk>
<trk>
<name>llglgi32</name>
<cmt>v</cmt>
<desc>Liège Sentier n°i32 </desc>
<link href="https://chemins.be/liege/sentier/i32"/><trkseg>
<trkpt lat="50.647261" lon="5.573862"><time>2026-05-03T01:35:50Z</time></trkpt>
<trkpt lat="50.647063" lon="5.573786"><time>2026-05-03T01:45:50Z</time></trkpt>
<trkpt lat="50.647046" lon="5.574214"><time>2026-05-03T01:55:50Z</time></trkpt>
<trkpt lat="50.647014" lon="5.574210"><time>2026-05-03T02:05:50Z</time></trkpt>
<trkpt lat="50.647023" lon="5.574030"><time>2026-05-03T02:15:50Z</time></trkpt>
<trkpt lat="50.647003" lon="5.574036"><time>2026-05-03T02:25:50Z</time></trkpt>
<trkpt lat="50.647002" lon="5.574127"><time>2026-05-03T02:35:50Z</time></trkpt>
<trkpt lat="50.646973" lon="5.574125"><time>2026-05-03T02:45:50Z</time></trkpt>
<trkpt lat="50.646964" lon="5.574269"><time>2026-05-03T02:55:50Z</time></trkpt>
<trkpt lat="50.646863" lon="5.574287"><time>2026-05-03T03:05:50Z</time></trkpt>
<trkpt lat="50.646856" lon="5.574425"><time>2026-05-03T03:15:50Z</time></trkpt>
<trkpt lat="50.646769" lon="5.574399"><time>2026-05-03T03:25:50Z</time></trkpt>
<trkpt lat="50.646745" lon="5.574322"><time>2026-05-03T03:35:50Z</time></trkpt>
<trkpt lat="50.646569" lon="5.574286"><time>2026-05-03T03:45:50Z</time></trkpt>
</trkseg>
</trk>
<trk>
<name>llglgi33</name>
<cmt>v</cmt>
<desc>Liège Sentier n°i33 </desc>
<link href="https://chemins.be/liege/sentier/i33"/><trkseg>
<trkpt lat="50.646977" lon="5.572932"><time>2026-05-03T01:35:50Z</time></trkpt>
<trkpt lat="50.647019" lon="5.572968"><time>2026-05-03T01:45:50Z</time></trkpt>
<trkpt lat="50.646999" lon="5.572994"><time>2026-05-03T01:55:50Z</time></trkpt>
<trkpt lat="50.647047" lon="5.573046"><time>2026-05-03T02:05:50Z</time></trkpt>
<trkpt lat="50.647156" lon="5.573180"><time>2026-05-03T02:15:50Z</time></trkpt>
<trkpt lat="50.647177" lon="5.573138"><time>2026-05-03T02:25:50Z</time></trkpt>
<trkpt lat="50.647401" lon="5.573039"><time>2026-05-03T02:35:50Z</time></trkpt>
<trkpt lat="50.647409" lon="5.573073"><time>2026-05-03T02:45:50Z</time></trkpt>
<trkpt lat="50.647231" lon="5.573232"><time>2026-05-03T02:55:50Z</time></trkpt>
<trkpt lat="50.647275" lon="5.573444"><time>2026-05-03T03:05:50Z</time></trkpt>
<trkpt lat="50.647324" lon="5.573492"><time>2026-05-03T03:15:50Z</time></trkpt>
<trkpt lat="50.647249" lon="5.573884"><time>2026-05-03T03:25:50Z</time></trkpt>
<trkpt lat="50.647509" lon="5.575161"><time>2026-05-03T03:35:50Z</time></trkpt>
<trkpt lat="50.647710" lon="5.575792"><time>2026-05-03T03:45:50Z</time></trkpt>
<trkpt lat="50.647771" lon="5.576376"><time>2026-05-03T03:55:50Z</time></trkpt>
<trkpt lat="50.647824" lon="5.576464"><time>2026-05-03T04:05:50Z</time></trkpt>
<trkpt lat="50.647926" lon="5.576563"><time>2026-05-03T04:15:50Z</time></trkpt>
</trkseg>
</trk>
<trk>
<name>llglgi34</name>
<cmt>v</cmt>
<desc>Liège Sentier n°i34 </desc>
<link href="https://chemins.be/liege/sentier/i34"/><trkseg>
<trkpt lat="50.647250" lon="5.576341"><time>2026-05-03T01:35:50Z</time></trkpt>
<trkpt lat="50.647224" lon="5.576356"><time>2026-05-03T01:45:50Z</time></trkpt>
<trkpt lat="50.647235" lon="5.576408"><time>2026-05-03T01:55:50Z</time></trkpt>
<trkpt lat="50.647204" lon="5.576449"><time>2026-05-03T02:05:50Z</time></trkpt>
<trkpt lat="50.647257" lon="5.576633"><time>2026-05-03T02:15:50Z</time></trkpt>
<trkpt lat="50.647150" lon="5.576800"><time>2026-05-03T02:25:50Z</time></trkpt>
<trkpt lat="50.647177" lon="5.576858"><time>2026-05-03T02:35:50Z</time></trkpt>
</trkseg>
</trk>
<trk>
<name>llglgi35</name>
<cmt>v</cmt>
<desc>Liège Chemin n°i35 Impasse Venta</desc>
<link href="https://chemins.be/liege/chemin/i35"/><trkseg>
<trkpt lat="50.647489" lon="5.579949"><time>2026-05-03T01:35:50Z</time></trkpt>
<trkpt lat="50.648194" lon="5.579318"><time>2026-05-03T01:45:50Z</time></trkpt>
</trkseg>
</trk>
<trk>
<name>llglgi36</name>
<cmt>v</cmt>
<desc>Liège Sentier n°i36 Impasse de la Couronne</desc>
<link href="https://chemins.be/liege/sentier/i36"/><trkseg>
<trkpt lat="50.647579" lon="5.580245"><time>2026-05-03T01:35:50Z</time></trkpt>
<trkpt lat="50.647691" lon="5.580160"><time>2026-05-03T01:45:50Z</time></trkpt>
<trkpt lat="50.648163" lon="5.579741"><time>2026-05-03T01:55:50Z</time></trkpt>
<trkpt lat="50.648387" lon="5.579516"><time>2026-05-03T02:05:50Z</time></trkpt>
<trkpt lat="50.648379" lon="5.579471"><time>2026-05-03T02:15:50Z</time></trkpt>
</trkseg>
</trk>
<trk>
<name>llglgi37</name>
<cmt>v</cmt>
<desc>Liège Chemin n°i37 Impasse de l'Ange</desc>
<link href="https://chemins.be/liege/chemin/i37"/><trkseg>
<trkpt lat="50.647616" lon="5.580371"><time>2026-05-03T01:35:50Z</time></trkpt>
<trkpt lat="50.647730" lon="5.580284"><time>2026-05-03T01:45:50Z</time></trkpt>
<trkpt lat="50.647837" lon="5.580212"><time>2026-05-03T01:55:50Z</time></trkpt>
<trkpt lat="50.648209" lon="5.579856"><time>2026-05-03T02:05:50Z</time></trkpt>
<trkpt lat="50.648362" lon="5.579672"><time>2026-05-03T02:15:50Z</time></trkpt>
</trkseg>
</trk>
<trk>
<name>llglgi38</name>
<cmt>v</cmt>
<desc>Liège Chemin n°i38 Impasse Hubart</desc>
<link href="https://chemins.be/liege/chemin/i38"/><trkseg>
<trkpt lat="50.648077" lon="5.581923"><time>2026-05-03T01:35:50Z</time></trkpt>
<trkpt lat="50.648999" lon="5.581031"><time>2026-05-03T01:45:50Z</time></trkpt>
<trkpt lat="50.649160" lon="5.581318"><time>2026-05-03T01:55:50Z</time></trkpt>
</trkseg>
</trk>
<trk>
<name>llglgi39</name>
<cmt>v</cmt>
<desc>Liège Sentier n°i39 Impasse de la Vignette</desc>
<link href="https://chemins.be/liege/sentier/i39"/><trkseg>
<trkpt lat="50.648161" lon="5.582168"><time>2026-05-03T01:35:50Z</time></trkpt>
<trkpt lat="50.648743" lon="5.581563"><time>2026-05-03T01:45:50Z</time></trkpt>
<trkpt lat="50.648833" lon="5.581691"><time>2026-05-03T01:55:50Z</time></trkpt>
<trkpt lat="50.649162" lon="5.581315"><time>2026-05-03T02:05:50Z</time></trkpt>
</trkseg></trk>
<trk>
<name>llglgi39</name>
<cmt>q</cmt>
<desc>Liège Sentier n°i39 Impasse de la Vignette</desc>
<link href="https://chemins.be/liege/sentier/i39"/><trkseg>
<trkpt lat="50.649162" lon="5.581315"><time>2026-05-03T02:05:50Z</time></trkpt>
<trkpt lat="50.649309" lon="5.581129"><time>2026-05-03T02:15:50Z</time></trkpt>
</trkseg>
</trk>
<trk>
<name>llglgi4</name>
<cmt>v</cmt>
<desc>Liège Chemin n°i4 Rue Pied du Thier à Liège</desc>
<link href="https://chemins.be/liege/chemin/i4"/><trkseg>
<trkpt lat="50.656094" lon="5.597858"><time>2026-05-03T01:35:50Z</time></trkpt>
<trkpt lat="50.656951" lon="5.598488"><time>2026-05-03T01:45:50Z</time></trkpt>
</trkseg>
</trk>
<trk>
<name>llglgi40</name>
<cmt>v</cmt>
<desc>Liège Sentier n°i40 Impasse de la Choine</desc>
<link href="https://chemins.be/liege/sentier/i40"/><trkseg>
<trkpt lat="50.648504" lon="5.582653"><time>2026-05-03T01:35:50Z</time></trkpt>
<trkpt lat="50.648852" lon="5.582254"><time>2026-05-03T01:45:50Z</time></trkpt>
<trkpt lat="50.649231" lon="5.581880"><time>2026-05-03T01:55:50Z</time></trkpt>
</trkseg>
</trk>
<trk>
<name>llglgi41</name>
<cmt>v</cmt>
<desc>Liège Chemin n°i41 Au Pèrî</desc>
<link href="https://chemins.be/liege/chemin/i41"/><trkseg>
<trkpt lat="50.647965" lon="5.572967"><time>2026-05-03T01:35:50Z</time></trkpt>
<trkpt lat="50.647894" lon="5.573306"><time>2026-05-03T01:45:50Z</time></trkpt>
<trkpt lat="50.648069" lon="5.573928"><time>2026-05-03T01:55:50Z</time></trkpt>
</trkseg>
</trk>
<trk>
<name>llglgi42</name>
<cmt>v</cmt>
<desc>Liège Sentier n°i42 Impasse des Ursulines</desc>
<link href="https://chemins.be/liege/sentier/i42"/><trkseg>
<trkpt lat="50.647574" lon="5.578007"><time>2026-05-03T01:35:50Z</time></trkpt>
<trkpt lat="50.647357" lon="5.577284"><time>2026-05-03T01:45:50Z</time></trkpt>
<trkpt lat="50.647383" lon="5.577245"><time>2026-05-03T01:55:50Z</time></trkpt>
<trkpt lat="50.647344" lon="5.577076"><time>2026-05-03T02:05:50Z</time></trkpt>
<trkpt lat="50.647426" lon="5.576872"><time>2026-05-03T02:15:50Z</time></trkpt>
<trkpt lat="50.647659" lon="5.576641"><time>2026-05-03T02:25:50Z</time></trkpt>
<trkpt lat="50.647681" lon="5.576693"><time>2026-05-03T02:35:50Z</time></trkpt>
<trkpt lat="50.647745" lon="5.576590"><time>2026-05-03T02:45:50Z</time></trkpt>
<trkpt lat="50.647793" lon="5.576704"><time>2026-05-03T02:55:50Z</time></trkpt>
<trkpt lat="50.647937" lon="5.576563"><time>2026-05-03T03:05:50Z</time></trkpt>
</trkseg></trk>
<trk>
<name>llglgi42</name>
<cmt>q</cmt>
<desc>Liège Sentier n°i42 Impasse des Ursulines</desc>
<link href="https://chemins.be/liege/sentier/i42"/><trkseg>
<trkpt lat="50.647937" lon="5.576563"><time>2026-05-03T03:05:50Z</time></trkpt>
<trkpt lat="50.647980" lon="5.576625"><time>2026-05-03T03:15:50Z</time></trkpt>
<trkpt lat="50.648391" lon="5.576207"><time>2026-05-03T03:25:50Z</time></trkpt>
</trkseg>
</trk>
<trk>
<name>llglgi43</name>
<cmt>v</cmt>
<desc>Liège Sentier n°i43 Degrès des Dentellières</desc>
<link href="https://chemins.be/liege/sentier/i43"/><trkseg>
<trkpt lat="50.646958" lon="5.572694"><time>2026-05-03T01:35:50Z</time></trkpt>
<trkpt lat="50.646808" lon="5.572784"><time>2026-05-03T01:45:50Z</time></trkpt>
<trkpt lat="50.646574" lon="5.572771"><time>2026-05-03T01:55:50Z</time></trkpt>
</trkseg>
</trk>
<trk>
<name>llglgi44</name>
<cmt>v</cmt>
<desc>Liège Sentier n°i44 Impasse Magnée</desc>
<link href="https://chemins.be/liege/sentier/i44"/><trkseg>
<trkpt lat="50.631333" lon="5.586723"><time>2026-05-03T01:35:50Z</time></trkpt>
<trkpt lat="50.631472" lon="5.587702"><time>2026-05-03T01:45:50Z</time></trkpt>
<trkpt lat="50.631416" lon="5.587884"><time>2026-05-03T01:55:50Z</time></trkpt>
<trkpt lat="50.631463" lon="5.588180"><time>2026-05-03T02:05:50Z</time></trkpt>
</trkseg>
</trk>
<trk>
<name>llglgi45</name>
<cmt>v</cmt>
<desc>Liège Sentier n°i45 Passage Albert Van Den Berg</desc>
<link href="https://chemins.be/liege/sentier/i45"/><trkseg>
<trkpt lat="50.628978" lon="5.552531"><time>2026-05-03T01:35:50Z</time></trkpt>
<trkpt lat="50.628515" lon="5.553364"><time>2026-05-03T01:45:50Z</time></trkpt>
</trkseg>
</trk>
<trk>
<name>llglgi46</name>
<cmt>v</cmt>
<desc>Liège Sentier n°i46 Impasse Renard</desc>
<link href="https://chemins.be/liege/sentier/i46"/><trkseg>
<trkpt lat="50.631048" lon="5.586015"><time>2026-05-03T01:35:50Z</time></trkpt>
<trkpt lat="50.630822" lon="5.586305"><time>2026-05-03T01:45:50Z</time></trkpt>
</trkseg>
</trk>
<trk>
<name>llglgi47</name>
<cmt>v</cmt>
<desc>Liège Sentier n°i47 Impasse Renard</desc>
<link href="https://chemins.be/liege/sentier/i47"/><trkseg>
<trkpt lat="50.631125" lon="5.586142"><time>2026-05-03T01:35:50Z</time></trkpt>
<trkpt lat="50.630888" lon="5.586446"><time>2026-05-03T01:45:50Z</time></trkpt>
</trkseg>
</trk>
<trk>
<name>llglgi48</name>
<cmt>v</cmt>
<desc>Liège Chemin n°i48 Rue du Banneux</desc>
<link href="https://chemins.be/liege/chemin/i48"/><trkseg>
<trkpt lat="50.650461" lon="5.582706"><time>2026-05-03T01:35:50Z</time></trkpt>
<trkpt lat="50.650634" lon="5.583049"><time>2026-05-03T01:45:50Z</time></trkpt>
<trkpt lat="50.652046" lon="5.586692"><time>2026-05-03T01:55:50Z</time></trkpt>
<trkpt lat="50.652536" lon="5.587318"><time>2026-05-03T02:05:50Z</time></trkpt>
<trkpt lat="50.653396" lon="5.588511"><time>2026-05-03T02:15:50Z</time></trkpt>
<trkpt lat="50.654049" lon="5.590348"><time>2026-05-03T02:25:50Z</time></trkpt>
</trkseg>
</trk>
<trk>
<name>llglgi49</name>
<cmt>s</cmt>
<desc>Liège Chemin n°i49 </desc>
<link href="https://chemins.be/liege/chemin/i49"/><trkseg>
<trkpt lat="50.662765" lon="5.572174"><time>2026-05-03T01:35:50Z</time></trkpt>
<trkpt lat="50.662409" lon="5.572449"><time>2026-05-03T01:45:50Z</time></trkpt>
<trkpt lat="50.661990" lon="5.572243"><time>2026-05-03T01:55:50Z</time></trkpt>
<trkpt lat="50.661574" lon="5.572273"><time>2026-05-03T02:05:50Z</time></trkpt>
</trkseg>
</trk>
<trk>
<name>llglgi5</name>
<cmt>v</cmt>
<desc>Liège Sentier n°i5 Passerelle La Belle Liégeoise</desc>
<link href="https://chemins.be/liege/sentier/i5"/><trkseg>
<trkpt lat="50.627579" lon="5.573213"><time>2026-05-03T01:35:50Z</time></trkpt>
<trkpt lat="50.628592" lon="5.575302"><time>2026-05-03T01:45:50Z</time></trkpt>
<trkpt lat="50.628791" lon="5.576085"><time>2026-05-03T01:55:50Z</time></trkpt>
<trkpt lat="50.628974" lon="5.576641"><time>2026-05-03T02:05:50Z</time></trkpt>
</trkseg>
</trk>
<trk>
<name>llglgi50</name>
<cmt>v</cmt>
<desc>Liège Sentier n°i50 </desc>
<link href="https://chemins.be/liege/sentier/i50"/><trkseg>
<trkpt lat="50.662500" lon="5.569420"><time>2026-05-03T01:35:50Z</time></trkpt>
<trkpt lat="50.664016" lon="5.568796"><time>2026-05-03T01:45:50Z</time></trkpt>
<trkpt lat="50.664500" lon="5.568916"><time>2026-05-03T01:55:50Z</time></trkpt>
<trkpt lat="50.665022" lon="5.568424"><time>2026-05-03T02:05:50Z</time></trkpt>
<trkpt lat="50.665272" lon="5.568373"><time>2026-05-03T02:15:50Z</time></trkpt>
<trkpt lat="50.665669" lon="5.568476"><time>2026-05-03T02:25:50Z</time></trkpt>
<trkpt lat="50.665998" lon="5.568686"><time>2026-05-03T02:35:50Z</time></trkpt>
</trkseg>
</trk>
<trk>
<name>llglgi51</name>
<cmt>v</cmt>
<desc>Liège Sentier n°i51 </desc>
<link href="https://chemins.be/liege/sentier/i51"/><trkseg>
<trkpt lat="50.663655" lon="5.596648"><time>2026-05-03T01:35:50Z</time></trkpt>
<trkpt lat="50.663780" lon="5.597184"><time>2026-05-03T01:45:50Z</time></trkpt>
</trkseg>
</trk>
<trk>
<name>llglgi52</name>
<cmt>v</cmt>
<desc>Liège Sentier n°i52 </desc>
<link href="https://chemins.be/liege/sentier/i52"/><trkseg>
<trkpt lat="50.664290" lon="5.596287"><time>2026-05-03T01:35:50Z</time></trkpt>
<trkpt lat="50.664268" lon="5.596592"><time>2026-05-03T01:45:50Z</time></trkpt>
<trkpt lat="50.664298" lon="5.596774"><time>2026-05-03T01:55:50Z</time></trkpt>
<trkpt lat="50.664270" lon="5.596800"><time>2026-05-03T02:05:50Z</time></trkpt>
<trkpt lat="50.664112" lon="5.596985"><time>2026-05-03T02:15:50Z</time></trkpt>
<trkpt lat="50.663796" lon="5.597178"><time>2026-05-03T02:25:50Z</time></trkpt>
</trkseg>
</trk>
<trk>
<name>llglgi53</name>
<cmt>v</cmt>
<desc>Liège Sentier n°i53 </desc>
<link href="https://chemins.be/liege/sentier/i53"/><trkseg>
<trkpt lat="50.661732" lon="5.596021"><time>2026-05-03T01:35:50Z</time></trkpt>
<trkpt lat="50.661840" lon="5.596621"><time>2026-05-03T01:45:50Z</time></trkpt>
<trkpt lat="50.662030" lon="5.597769"><time>2026-05-03T01:55:50Z</time></trkpt>
<trkpt lat="50.662007" lon="5.597877"><time>2026-05-03T02:05:50Z</time></trkpt>
</trkseg></trk>
<trk>
<name>llglgi53</name>
<cmt>q</cmt>
<desc>Liège Sentier n°i53 </desc>
<link href="https://chemins.be/liege/sentier/i53"/><trkseg>
<trkpt lat="50.662007" lon="5.597877"><time>2026-05-03T02:05:50Z</time></trkpt>
<trkpt lat="50.661547" lon="5.598210"><time>2026-05-03T02:15:50Z</time></trkpt>
<trkpt lat="50.661547" lon="5.598292"><time>2026-05-03T02:25:50Z</time></trkpt>
</trkseg>
</trk>
<trk>
<name>llglgi54</name>
<cmt>v</cmt>
<desc>Liège Sentier n°i54 </desc>
<link href="https://chemins.be/liege/sentier/i54"/><trkseg>
<trkpt lat="50.665762" lon="5.581501"><time>2026-05-03T01:35:50Z</time></trkpt>
<trkpt lat="50.665555" lon="5.581852"><time>2026-05-03T01:45:50Z</time></trkpt>
<trkpt lat="50.665180" lon="5.581681"><time>2026-05-03T01:55:50Z</time></trkpt>
<trkpt lat="50.664734" lon="5.581767"><time>2026-05-03T02:05:50Z</time></trkpt>
<trkpt lat="50.664658" lon="5.582325"><time>2026-05-03T02:15:50Z</time></trkpt>
<trkpt lat="50.664315" lon="5.582350"><time>2026-05-03T02:25:50Z</time></trkpt>
<trkpt lat="50.664247" lon="5.583020"><time>2026-05-03T02:35:50Z</time></trkpt>
<trkpt lat="50.663888" lon="5.583913"><time>2026-05-03T02:45:50Z</time></trkpt>
<trkpt lat="50.664040" lon="5.584033"><time>2026-05-03T02:55:50Z</time></trkpt>
</trkseg>
</trk>
<trk>
<name>llglgi55</name>
<cmt>v</cmt>
<desc>Liège Sentier n°i55 </desc>
<link href="https://chemins.be/liege/sentier/i55"/><trkseg>
<trkpt lat="50.666306" lon="5.582822"><time>2026-05-03T01:35:50Z</time></trkpt>
<trkpt lat="50.665898" lon="5.583346"><time>2026-05-03T01:45:50Z</time></trkpt>
<trkpt lat="50.665833" lon="5.583964"><time>2026-05-03T01:55:50Z</time></trkpt>
<trkpt lat="50.665523" lon="5.584599"><time>2026-05-03T02:05:50Z</time></trkpt>
<trkpt lat="50.665632" lon="5.585088"><time>2026-05-03T02:15:50Z</time></trkpt>
<trkpt lat="50.665604" lon="5.586299"><time>2026-05-03T02:25:50Z</time></trkpt>
<trkpt lat="50.665256" lon="5.587406"><time>2026-05-03T02:35:50Z</time></trkpt>
<trkpt lat="50.664843" lon="5.587663"><time>2026-05-03T02:45:50Z</time></trkpt>
<trkpt lat="50.664516" lon="5.588230"><time>2026-05-03T02:55:50Z</time></trkpt>
<trkpt lat="50.664100" lon="5.589153"><time>2026-05-03T03:05:50Z</time></trkpt>
</trkseg>
</trk>
<trk>
<name>llglgi56</name>
<cmt>v</cmt>
<desc>Liège Sentier n°i56 </desc>
<link href="https://chemins.be/liege/sentier/i56"/><trkseg>
<trkpt lat="50.665888" lon="5.583375"><time>2026-05-03T01:35:50Z</time></trkpt>
<trkpt lat="50.665539" lon="5.582886"><time>2026-05-03T01:45:50Z</time></trkpt>
<trkpt lat="50.665121" lon="5.582895"><time>2026-05-03T01:55:50Z</time></trkpt>
<trkpt lat="50.664566" lon="5.583228"><time>2026-05-03T02:05:50Z</time></trkpt>
<trkpt lat="50.664299" lon="5.583524"><time>2026-05-03T02:15:50Z</time></trkpt>
<trkpt lat="50.664019" lon="5.584078"><time>2026-05-03T02:25:50Z</time></trkpt>
<trkpt lat="50.663880" lon="5.584650"><time>2026-05-03T02:35:50Z</time></trkpt>
<trkpt lat="50.663881" lon="5.585087"><time>2026-05-03T02:45:50Z</time></trkpt>
<trkpt lat="50.663918" lon="5.585323"><time>2026-05-03T02:55:50Z</time></trkpt>
<trkpt lat="50.664473" lon="5.585466"><time>2026-05-03T03:05:50Z</time></trkpt>
</trkseg>
</trk>
<trk>
<name>llglgi57</name>
<cmt>v</cmt>
<desc>Liège Sentier n°i57 </desc>
<link href="https://chemins.be/liege/sentier/i57"/><trkseg>
<trkpt lat="50.665504" lon="5.584599"><time>2026-05-03T01:35:50Z</time></trkpt>
<trkpt lat="50.665539" lon="5.583973"><time>2026-05-03T01:45:50Z</time></trkpt>
<trkpt lat="50.665319" lon="5.583522"><time>2026-05-03T01:55:50Z</time></trkpt>
<trkpt lat="50.664810" lon="5.583338"><time>2026-05-03T02:05:50Z</time></trkpt>
<trkpt lat="50.664364" lon="5.583586"><time>2026-05-03T02:15:50Z</time></trkpt>
<trkpt lat="50.664103" lon="5.584814"><time>2026-05-03T02:25:50Z</time></trkpt>
</trkseg>
</trk>
<trk>
<name>llglgi58</name>
<cmt>v</cmt>
<desc>Liège Sentier n°i58 </desc>
<link href="https://chemins.be/liege/sentier/i58"/><trkseg>
<trkpt lat="50.663412" lon="5.587886"><time>2026-05-03T01:35:50Z</time></trkpt>
<trkpt lat="50.663575" lon="5.587543"><time>2026-05-03T01:45:50Z</time></trkpt>
<trkpt lat="50.664021" lon="5.587946"><time>2026-05-03T01:55:50Z</time></trkpt>
<trkpt lat="50.664549" lon="5.588247"><time>2026-05-03T02:05:50Z</time></trkpt>
</trkseg>
</trk>
<trk>
<name>llglgi59</name>
<cmt>v</cmt>
<desc>Liège Sentier n°i59 </desc>
<link href="https://chemins.be/liege/sentier/i59"/><trkseg>
<trkpt lat="50.662590" lon="5.583149"><time>2026-05-03T01:35:50Z</time></trkpt>
<trkpt lat="50.662764" lon="5.583294"><time>2026-05-03T01:45:50Z</time></trkpt>
<trkpt lat="50.662808" lon="5.583655"><time>2026-05-03T01:55:50Z</time></trkpt>
<trkpt lat="50.662906" lon="5.583715"><time>2026-05-03T02:05:50Z</time></trkpt>
<trkpt lat="50.663064" lon="5.584745"><time>2026-05-03T02:15:50Z</time></trkpt>
<trkpt lat="50.663284" lon="5.585054"><time>2026-05-03T02:25:50Z</time></trkpt>
<trkpt lat="50.663336" lon="5.585264"><time>2026-05-03T02:35:50Z</time></trkpt>
<trkpt lat="50.663469" lon="5.585282"><time>2026-05-03T02:45:50Z</time></trkpt>
<trkpt lat="50.663581" lon="5.585294"><time>2026-05-03T02:55:50Z</time></trkpt>
<trkpt lat="50.663712" lon="5.585162"><time>2026-05-03T03:05:50Z</time></trkpt>
<trkpt lat="50.663731" lon="5.584899"><time>2026-05-03T03:15:50Z</time></trkpt>
<trkpt lat="50.663879" lon="5.584663"><time>2026-05-03T03:25:50Z</time></trkpt>
<trkpt lat="50.663954" lon="5.584579"><time>2026-05-03T03:35:50Z</time></trkpt>
<trkpt lat="50.664054" lon="5.584652"><time>2026-05-03T03:45:50Z</time></trkpt>
<trkpt lat="50.664091" lon="5.584844"><time>2026-05-03T03:55:50Z</time></trkpt>
<trkpt lat="50.664264" lon="5.584973"><time>2026-05-03T04:05:50Z</time></trkpt>
<trkpt lat="50.664459" lon="5.585470"><time>2026-05-03T04:15:50Z</time></trkpt>
</trkseg>
</trk>
<trk>
<name>llglgi6</name>
<cmt>v</cmt>
<desc>Liège Sentier n°i6 </desc>
<link href="https://chemins.be/liege/sentier/i6"/><trkseg>
<trkpt lat="50.658078" lon="5.582704"><time>2026-05-03T01:35:50Z</time></trkpt>
<trkpt lat="50.658064" lon="5.582350"><time>2026-05-03T01:45:50Z</time></trkpt>
<trkpt lat="50.658077" lon="5.581983"><time>2026-05-03T01:55:50Z</time></trkpt>
<trkpt lat="50.658059" lon="5.581926"><time>2026-05-03T02:05:50Z</time></trkpt>
<trkpt lat="50.657987" lon="5.581910"><time>2026-05-03T02:15:50Z</time></trkpt>
<trkpt lat="50.657880" lon="5.581893"><time>2026-05-03T02:25:50Z</time></trkpt>
<trkpt lat="50.657844" lon="5.581864"><time>2026-05-03T02:35:50Z</time></trkpt>
<trkpt lat="50.657854" lon="5.581793"><time>2026-05-03T02:45:50Z</time></trkpt>
<trkpt lat="50.657873" lon="5.581666"><time>2026-05-03T02:55:50Z</time></trkpt>
<trkpt lat="50.657855" lon="5.581638"><time>2026-05-03T03:05:50Z</time></trkpt>
<trkpt lat="50.657819" lon="5.581651"><time>2026-05-03T03:15:50Z</time></trkpt>
<trkpt lat="50.657666" lon="5.581732"><time>2026-05-03T03:25:50Z</time></trkpt>
<trkpt lat="50.657548" lon="5.581800"><time>2026-05-03T03:35:50Z</time></trkpt>
<trkpt lat="50.657521" lon="5.581771"><time>2026-05-03T03:45:50Z</time></trkpt>
<trkpt lat="50.657550" lon="5.581644"><time>2026-05-03T03:55:50Z</time></trkpt>
<trkpt lat="50.657577" lon="5.581574"><time>2026-05-03T04:05:50Z</time></trkpt>
<trkpt lat="50.657569" lon="5.581531"><time>2026-05-03T04:15:50Z</time></trkpt>
<trkpt lat="50.657525" lon="5.581445"><time>2026-05-03T04:25:50Z</time></trkpt>
</trkseg>
</trk>
<trk>
<name>llglgi60</name>
<cmt>v</cmt>
<desc>Liège Sentier n°i60 Sentier des Coteaux</desc>
<link href="https://chemins.be/liege/sentier/i60"/><trkseg>
<trkpt lat="50.650897" lon="5.580646"><time>2026-05-03T01:35:50Z</time></trkpt>
<trkpt lat="50.650709" lon="5.580224"><time>2026-05-03T01:45:50Z</time></trkpt>
<trkpt lat="50.650472" lon="5.580170"><time>2026-05-03T01:55:50Z</time></trkpt>
<trkpt lat="50.650022" lon="5.579530"><time>2026-05-03T02:05:50Z</time></trkpt>
<trkpt lat="50.649997" lon="5.579147"><time>2026-05-03T02:15:50Z</time></trkpt>
<trkpt lat="50.650219" lon="5.579218"><time>2026-05-03T02:25:50Z</time></trkpt>
</trkseg>
</trk>
<trk>
<name>llglgi61</name>
<cmt>v</cmt>
<desc>Liège Sentier n°i61 </desc>
<link href="https://chemins.be/liege/sentier/i61"/><trkseg>
<trkpt lat="50.660368" lon="5.575452"><time>2026-05-03T01:35:50Z</time></trkpt>
<trkpt lat="50.660333" lon="5.576422"><time>2026-05-03T01:45:50Z</time></trkpt>
<trkpt lat="50.660093" lon="5.576742"><time>2026-05-03T01:55:50Z</time></trkpt>
<trkpt lat="50.660086" lon="5.576836"><time>2026-05-03T02:05:50Z</time></trkpt>
<trkpt lat="50.660615" lon="5.576975"><time>2026-05-03T02:15:50Z</time></trkpt>
<trkpt lat="50.661212" lon="5.577104"><time>2026-05-03T02:25:50Z</time></trkpt>
<trkpt lat="50.661650" lon="5.577573"><time>2026-05-03T02:35:50Z</time></trkpt>
<trkpt lat="50.661805" lon="5.577906"><time>2026-05-03T02:45:50Z</time></trkpt>
<trkpt lat="50.661931" lon="5.577959"><time>2026-05-03T02:55:50Z</time></trkpt>
<trkpt lat="50.661980" lon="5.578126"><time>2026-05-03T03:05:50Z</time></trkpt>
<trkpt lat="50.661944" lon="5.578221"><time>2026-05-03T03:15:50Z</time></trkpt>
<trkpt lat="50.662114" lon="5.579166"><time>2026-05-03T03:25:50Z</time></trkpt>
<trkpt lat="50.661386" lon="5.579140"><time>2026-05-03T03:35:50Z</time></trkpt>
<trkpt lat="50.661134" lon="5.579392"><time>2026-05-03T03:45:50Z</time></trkpt>
<trkpt lat="50.660913" lon="5.580035"><time>2026-05-03T03:55:50Z</time></trkpt>
<trkpt lat="50.660893" lon="5.580803"><time>2026-05-03T04:05:50Z</time></trkpt>
<trkpt lat="50.660998" lon="5.581108"><time>2026-05-03T04:15:50Z</time></trkpt>
<trkpt lat="50.661369" lon="5.581167"><time>2026-05-03T04:25:50Z</time></trkpt>
<trkpt lat="50.661502" lon="5.581124"><time>2026-05-03T04:35:50Z</time></trkpt>
</trkseg>
</trk>
<trk>
<name>llglgi62</name>
<cmt>v</cmt>
<desc>Liège Sentier n°i62 </desc>
<link href="https://chemins.be/liege/sentier/i62"/><trkseg>
<trkpt lat="50.664453" lon="5.593071"><time>2026-05-03T01:35:50Z</time></trkpt>
<trkpt lat="50.664317" lon="5.592685"><time>2026-05-03T01:45:50Z</time></trkpt>
</trkseg></trk>
<trk>
<name>llglgi62</name>
<cmt>b</cmt>
<desc>Liège Sentier n°i62 </desc>
<link href="https://chemins.be/liege/sentier/i62"/><trkseg>
<trkpt lat="50.664317" lon="5.592685"><time>2026-05-03T01:45:50Z</time></trkpt>
<trkpt lat="50.664242" lon="5.592449"><time>2026-05-03T01:55:50Z</time></trkpt>
<trkpt lat="50.664123" lon="5.592647"><time>2026-05-03T02:05:50Z</time></trkpt>
</trkseg></trk>
<trk>
<name>llglgi62</name>
<cmt>d</cmt>
<desc>Liège Sentier n°i62 </desc>
<link href="https://chemins.be/liege/sentier/i62"/><trkseg>
<trkpt lat="50.664123" lon="5.592647"><time>2026-05-03T02:05:50Z</time></trkpt>
<trkpt lat="50.663620" lon="5.591564"><time>2026-05-03T02:15:50Z</time></trkpt>
<trkpt lat="50.663749" lon="5.591193"><time>2026-05-03T02:25:50Z</time></trkpt>
<trkpt lat="50.663736" lon="5.590829"><time>2026-05-03T02:35:50Z</time></trkpt>
<trkpt lat="50.663637" lon="5.590689"><time>2026-05-03T02:45:50Z</time></trkpt>
<trkpt lat="50.663515" lon="5.590711"><time>2026-05-03T02:55:50Z</time></trkpt>
<trkpt lat="50.663385" lon="5.590587"><time>2026-05-03T03:05:50Z</time></trkpt>
</trkseg>
</trk>
<trk>
<name>llglgi63</name>
<cmt>q</cmt>
<desc>Liège Sentier n°i63 </desc>
<link href="https://chemins.be/liege/sentier/i63"/><trkseg>
<trkpt lat="50.662740" lon="5.571026"><time>2026-05-03T01:35:50Z</time></trkpt>
<trkpt lat="50.662359" lon="5.570971"><time>2026-05-03T01:45:50Z</time></trkpt>
<trkpt lat="50.662106" lon="5.571044"><time>2026-05-03T01:55:50Z</time></trkpt>
<trkpt lat="50.661683" lon="5.570865"><time>2026-05-03T02:05:50Z</time></trkpt>
<trkpt lat="50.661179" lon="5.570842"><time>2026-05-03T02:15:50Z</time></trkpt>
</trkseg>
</trk>
<trk>
<name>llglgi64</name>
<cmt>s</cmt>
<desc>Liège Sentier n°i64 </desc>
<link href="https://chemins.be/liege/sentier/i64"/><trkseg>
<trkpt lat="50.653102" lon="5.558308"><time>2026-05-03T01:35:50Z</time></trkpt>
<trkpt lat="50.653991" lon="5.558429"><time>2026-05-03T01:45:50Z</time></trkpt>
<trkpt lat="50.654367" lon="5.558422"><time>2026-05-03T01:55:50Z</time></trkpt>
<trkpt lat="50.654458" lon="5.558365"><time>2026-05-03T02:05:50Z</time></trkpt>
<trkpt lat="50.654562" lon="5.558143"><time>2026-05-03T02:15:50Z</time></trkpt>
</trkseg>
</trk>
<trk>
<name>llglgi65</name>
<cmt>s</cmt>
<desc>Liège Sentier n°i65 </desc>
<link href="https://chemins.be/liege/sentier/i65"/><trkseg>
<trkpt lat="50.654542" lon="5.559875"><time>2026-05-03T01:35:50Z</time></trkpt>
<trkpt lat="50.654463" lon="5.558348"><time>2026-05-03T01:45:50Z</time></trkpt>
</trkseg>
</trk>
<trk>
<name>llglgi66</name>
<cmt>s</cmt>
<desc>Liège Sentier n°i66 </desc>
<link href="https://chemins.be/liege/sentier/i66"/><trkseg>
<trkpt lat="50.653998" lon="5.559153"><time>2026-05-03T01:35:50Z</time></trkpt>
<trkpt lat="50.653764" lon="5.558766"><time>2026-05-03T01:45:50Z</time></trkpt>
<trkpt lat="50.653376" lon="5.558387"><time>2026-05-03T01:55:50Z</time></trkpt>
</trkseg>
</trk>
<trk>
<name>llglgi67</name>
<cmt>v</cmt>
<desc>Liège Chemin n°i67 Sentier du Terris</desc>
<link href="https://chemins.be/liege/chemin/i67"/><trkseg>
<trkpt lat="50.626519" lon="5.557339"><time>2026-05-03T01:35:50Z</time></trkpt>
<trkpt lat="50.625412" lon="5.555567"><time>2026-05-03T01:45:50Z</time></trkpt>
<trkpt lat="50.625306" lon="5.555571"><time>2026-05-03T01:55:50Z</time></trkpt>
</trkseg>
</trk>
<trk>
<name>llglgi68</name>
<cmt>v</cmt>
<desc>Liège Sentier n°i68 Rue de la Butte</desc>
<link href="https://chemins.be/liege/sentier/i68"/><trkseg>
<trkpt lat="50.631589" lon="5.555986"><time>2026-05-03T01:35:50Z</time></trkpt>
<trkpt lat="50.631704" lon="5.555820"><time>2026-05-03T01:45:50Z</time></trkpt>
</trkseg>
</trk>
<trk>
<name>llglgi69</name>
<cmt>v</cmt>
<desc>Liège Sentier n°i69 Sentier des vaches</desc>
<link href="https://chemins.be/liege/sentier/i69"/><trkseg>
<trkpt lat="50.621336" lon="5.552926"><time>2026-05-03T01:35:50Z</time></trkpt>
<trkpt lat="50.621497" lon="5.552705"><time>2026-05-03T01:45:50Z</time></trkpt>
<trkpt lat="50.621606" lon="5.552551"><time>2026-05-03T01:55:50Z</time></trkpt>
<trkpt lat="50.621871" lon="5.552515"><time>2026-05-03T02:05:50Z</time></trkpt>
<trkpt lat="50.621919" lon="5.552469"><time>2026-05-03T02:15:50Z</time></trkpt>
</trkseg>
</trk>
<trk>
<name>llglgi7</name>
<cmt>v</cmt>
<desc>Liège Sentier n°i7 </desc>
<link href="https://chemins.be/liege/sentier/i7"/><trkseg>
<trkpt lat="50.661780" lon="5.588090"><time>2026-05-03T01:35:50Z</time></trkpt>
<trkpt lat="50.661858" lon="5.588417"><time>2026-05-03T01:45:50Z</time></trkpt>
<trkpt lat="50.661857" lon="5.588488"><time>2026-05-03T01:55:50Z</time></trkpt>
<trkpt lat="50.661747" lon="5.588641"><time>2026-05-03T02:05:50Z</time></trkpt>
<trkpt lat="50.661720" lon="5.588711"><time>2026-05-03T02:15:50Z</time></trkpt>
<trkpt lat="50.661755" lon="5.588797"><time>2026-05-03T02:25:50Z</time></trkpt>
<trkpt lat="50.661835" lon="5.588912"><time>2026-05-03T02:35:50Z</time></trkpt>
<trkpt lat="50.661986" lon="5.589086"><time>2026-05-03T02:45:50Z</time></trkpt>
<trkpt lat="50.662155" lon="5.589260"><time>2026-05-03T02:55:50Z</time></trkpt>
<trkpt lat="50.662288" lon="5.589419"><time>2026-05-03T03:05:50Z</time></trkpt>
<trkpt lat="50.662430" lon="5.589564"><time>2026-05-03T03:15:50Z</time></trkpt>
<trkpt lat="50.662590" lon="5.589752"><time>2026-05-03T03:25:50Z</time></trkpt>
<trkpt lat="50.662688" lon="5.589868"><time>2026-05-03T03:35:50Z</time></trkpt>
</trkseg>
</trk>
<trk>
<name>llglgi70</name>
<cmt>v</cmt>
<desc>Liège Sentier n°i70 </desc>
<link href="https://chemins.be/liege/sentier/i70"/><trkseg>
<trkpt lat="50.621522" lon="5.552683"><time>2026-05-03T01:35:50Z</time></trkpt>
<trkpt lat="50.621660" lon="5.552751"><time>2026-05-03T01:45:50Z</time></trkpt>
<trkpt lat="50.621706" lon="5.552962"><time>2026-05-03T01:55:50Z</time></trkpt>
<trkpt lat="50.621686" lon="5.553124"><time>2026-05-03T02:05:50Z</time></trkpt>
<trkpt lat="50.621785" lon="5.553448"><time>2026-05-03T02:15:50Z</time></trkpt>
<trkpt lat="50.622096" lon="5.553441"><time>2026-05-03T02:25:50Z</time></trkpt>
<trkpt lat="50.622200" lon="5.553355"><time>2026-05-03T02:35:50Z</time></trkpt>
<trkpt lat="50.622312" lon="5.553503"><time>2026-05-03T02:45:50Z</time></trkpt>
<trkpt lat="50.622682" lon="5.554106"><time>2026-05-03T02:55:50Z</time></trkpt>
<trkpt lat="50.622694" lon="5.554072"><time>2026-05-03T03:05:50Z</time></trkpt>
<trkpt lat="50.622910" lon="5.554371"><time>2026-05-03T03:15:50Z</time></trkpt>
<trkpt lat="50.622919" lon="5.555001"><time>2026-05-03T03:25:50Z</time></trkpt>
<trkpt lat="50.623010" lon="5.555147"><time>2026-05-03T03:35:50Z</time></trkpt>
<trkpt lat="50.623019" lon="5.555018"><time>2026-05-03T03:45:50Z</time></trkpt>
<trkpt lat="50.623076" lon="5.555022"><time>2026-05-03T03:55:50Z</time></trkpt>
<trkpt lat="50.623194" lon="5.555380"><time>2026-05-03T04:05:50Z</time></trkpt>
<trkpt lat="50.623412" lon="5.555569"><time>2026-05-03T04:15:50Z</time></trkpt>
<trkpt lat="50.623922" lon="5.556621"><time>2026-05-03T04:25:50Z</time></trkpt>
<trkpt lat="50.624042" lon="5.557221"><time>2026-05-03T04:35:50Z</time></trkpt>
<trkpt lat="50.624267" lon="5.557869"><time>2026-05-03T04:45:50Z</time></trkpt>
<trkpt lat="50.624263" lon="5.558008"><time>2026-05-03T04:55:50Z</time></trkpt>
</trkseg>
</trk>
<trk>
<name>llglgi71</name>
<cmt>q</cmt>
<desc>Liège Sentier n°i71 </desc>
<link href="https://chemins.be/liege/sentier/i71"/><trkseg>
<trkpt lat="50.655015" lon="5.582913"><time>2026-05-03T01:35:50Z</time></trkpt>
<trkpt lat="50.655414" lon="5.582931"><time>2026-05-03T01:45:50Z</time></trkpt>
</trkseg>
</trk>
<trk>
<name>llglgi72</name>
<cmt>v</cmt>
<desc>Liège Sentier n°i72 </desc>
<link href="https://chemins.be/liege/sentier/i72"/><trkseg>
<trkpt lat="50.652623" lon="5.589051"><time>2026-05-03T01:35:50Z</time></trkpt>
<trkpt lat="50.652751" lon="5.588940"><time>2026-05-03T01:45:50Z</time></trkpt>
<trkpt lat="50.652632" lon="5.588620"><time>2026-05-03T01:55:50Z</time></trkpt>
<trkpt lat="50.652869" lon="5.588402"><time>2026-05-03T02:05:50Z</time></trkpt>
<trkpt lat="50.653097" lon="5.588139"><time>2026-05-03T02:15:50Z</time></trkpt>
</trkseg>
</trk>
<trk>
<name>llglgi73</name>
<cmt>v</cmt>
<desc>Liège Sentier n°i73 </desc>
<link href="https://chemins.be/liege/sentier/i73"/><trkseg>
<trkpt lat="50.653258" lon="5.588314"><time>2026-05-03T01:35:50Z</time></trkpt>
<trkpt lat="50.653087" lon="5.587737"><time>2026-05-03T01:45:50Z</time></trkpt>
<trkpt lat="50.653114" lon="5.587709"><time>2026-05-03T01:55:50Z</time></trkpt>
<trkpt lat="50.653195" lon="5.587888"><time>2026-05-03T02:05:50Z</time></trkpt>
<trkpt lat="50.653256" lon="5.587842"><time>2026-05-03T02:15:50Z</time></trkpt>
<trkpt lat="50.653204" lon="5.587711"><time>2026-05-03T02:25:50Z</time></trkpt>
<trkpt lat="50.652863" lon="5.586601"><time>2026-05-03T02:35:50Z</time></trkpt>
<trkpt lat="50.652963" lon="5.586590"><time>2026-05-03T02:45:50Z</time></trkpt>
<trkpt lat="50.653042" lon="5.586633"><time>2026-05-03T02:55:50Z</time></trkpt>
<trkpt lat="50.653187" lon="5.586825"><time>2026-05-03T03:05:50Z</time></trkpt>
<trkpt lat="50.653374" lon="5.586976"><time>2026-05-03T03:15:50Z</time></trkpt>
<trkpt lat="50.653412" lon="5.586765"><time>2026-05-03T03:25:50Z</time></trkpt>
<trkpt lat="50.653274" lon="5.586200"><time>2026-05-03T03:35:50Z</time></trkpt>
<trkpt lat="50.653693" lon="5.586490"><time>2026-05-03T03:45:50Z</time></trkpt>
<trkpt lat="50.654011" lon="5.586882"><time>2026-05-03T03:55:50Z</time></trkpt>
<trkpt lat="50.654255" lon="5.586628"><time>2026-05-03T04:05:50Z</time></trkpt>
<trkpt lat="50.654309" lon="5.586742"><time>2026-05-03T04:15:50Z</time></trkpt>
<trkpt lat="50.654551" lon="5.586518"><time>2026-05-03T04:25:50Z</time></trkpt>
<trkpt lat="50.654457" lon="5.585689"><time>2026-05-03T04:35:50Z</time></trkpt>
<trkpt lat="50.654589" lon="5.584201"><time>2026-05-03T04:45:50Z</time></trkpt>
<trkpt lat="50.654684" lon="5.584268"><time>2026-05-03T04:55:50Z</time></trkpt>
<trkpt lat="50.654846" lon="5.584080"><time>2026-05-03T05:05:50Z</time></trkpt>
<trkpt lat="50.655126" lon="5.584272"><time>2026-05-03T05:15:50Z</time></trkpt>
</trkseg>
</trk>
<trk>
<name>llglgi74</name>
<cmt>v</cmt>
<desc>Liège Sentier n°i74 </desc>
<link href="https://chemins.be/liege/sentier/i74"/><trkseg>
<trkpt lat="50.652632" lon="5.582345"><time>2026-05-03T01:35:50Z</time></trkpt>
<trkpt lat="50.652584" lon="5.582515"><time>2026-05-03T01:45:50Z</time></trkpt>
<trkpt lat="50.652525" lon="5.583127"><time>2026-05-03T01:55:50Z</time></trkpt>
<trkpt lat="50.652640" lon="5.583531"><time>2026-05-03T02:05:50Z</time></trkpt>
<trkpt lat="50.652622" lon="5.583681"><time>2026-05-03T02:15:50Z</time></trkpt>
<trkpt lat="50.653472" lon="5.585099"><time>2026-05-03T02:25:50Z</time></trkpt>
<trkpt lat="50.653801" lon="5.585854"><time>2026-05-03T02:35:50Z</time></trkpt>
<trkpt lat="50.654251" lon="5.586614"><time>2026-05-03T02:45:50Z</time></trkpt>
<trkpt lat="50.654320" lon="5.586725"><time>2026-05-03T02:55:50Z</time></trkpt>
<trkpt lat="50.654424" lon="5.587425"><time>2026-05-03T03:05:50Z</time></trkpt>
<trkpt lat="50.654590" lon="5.588578"><time>2026-05-03T03:15:50Z</time></trkpt>
<trkpt lat="50.655146" lon="5.590544"><time>2026-05-03T03:25:50Z</time></trkpt>
<trkpt lat="50.655263" lon="5.590703"><time>2026-05-03T03:35:50Z</time></trkpt>
<trkpt lat="50.655411" lon="5.590756"><time>2026-05-03T03:45:50Z</time></trkpt>
<trkpt lat="50.655790" lon="5.590637"><time>2026-05-03T03:55:50Z</time></trkpt>
<trkpt lat="50.656092" lon="5.589687"><time>2026-05-03T04:05:50Z</time></trkpt>
<trkpt lat="50.656219" lon="5.589515"><time>2026-05-03T04:15:50Z</time></trkpt>
<trkpt lat="50.656550" lon="5.589530"><time>2026-05-03T04:25:50Z</time></trkpt>
</trkseg>
</trk>
<trk>
<name>llglgi75</name>
<cmt>v</cmt>
<desc>Liège Sentier n°i75 </desc>
<link href="https://chemins.be/liege/sentier/i75"/><trkseg>
<trkpt lat="50.654007" lon="5.584387"><time>2026-05-03T01:35:50Z</time></trkpt>
<trkpt lat="50.654461" lon="5.585646"><time>2026-05-03T01:45:50Z</time></trkpt>
</trkseg>
</trk>
<trk>
<name>llglgi76</name>
<cmt>v</cmt>
<desc>Liège Sentier n°i76 Chemin des Cèdres</desc>
<link href="https://chemins.be/liege/sentier/i76"/><trkseg>
<trkpt lat="50.617883" lon="5.571473"><time>2026-05-03T01:35:50Z</time></trkpt>
<trkpt lat="50.618142" lon="5.571394"><time>2026-05-03T01:45:50Z</time></trkpt>
<trkpt lat="50.618351" lon="5.571988"><time>2026-05-03T01:55:50Z</time></trkpt>
</trkseg>
</trk>
<trk>
<name>llglgi77</name>
<cmt>v</cmt>
<desc>Liège Sentier n°i77 </desc>
<link href="https://chemins.be/liege/sentier/i77"/><trkseg>
<trkpt lat="50.618779" lon="5.572859"><time>2026-05-03T01:35:50Z</time></trkpt>
<trkpt lat="50.618693" lon="5.572682"><time>2026-05-03T01:45:50Z</time></trkpt>
<trkpt lat="50.618566" lon="5.572369"><time>2026-05-03T01:55:50Z</time></trkpt>
</trkseg>
</trk>
<trk>
<name>llglgi78</name>
<cmt>v</cmt>
<desc>Liège Sentier n°i78 Rue du Carré</desc>
<link href="https://chemins.be/liege/sentier/i78"/><trkseg>
<trkpt lat="50.645414" lon="5.577356"><time>2026-05-03T01:35:50Z</time></trkpt>
<trkpt lat="50.645188" lon="5.576777"><time>2026-05-03T01:45:50Z</time></trkpt>
</trkseg>
</trk>
<trk>
<name>llglgi79</name>
<cmt>v</cmt>
<desc>Liège Sentier n°i79 </desc>
<link href="https://chemins.be/liege/sentier/i79"/><trkseg>
<trkpt lat="50.643092" lon="5.537695"><time>2026-05-03T01:35:50Z</time></trkpt>
<trkpt lat="50.642353" lon="5.538038"><time>2026-05-03T01:45:50Z</time></trkpt>
<trkpt lat="50.642280" lon="5.537920"><time>2026-05-03T01:55:50Z</time></trkpt>
<trkpt lat="50.642239" lon="5.537634"><time>2026-05-03T02:05:50Z</time></trkpt>
</trkseg>
</trk>
<trk>
<name>llglgi8</name>
<cmt>v</cmt>
<desc>Liège Sentier n°i8 </desc>
<link href="https://chemins.be/liege/sentier/i8"/><trkseg>
<trkpt lat="50.649800" lon="5.550021"><time>2026-05-03T01:35:50Z</time></trkpt>
<trkpt lat="50.649208" lon="5.548960"><time>2026-05-03T01:45:50Z</time></trkpt>
</trkseg>
</trk>
<trk>
<name>llglgi80</name>
<cmt>q</cmt>
<desc>Liège Chemin n°i80 </desc>
<link href="https://chemins.be/liege/chemin/i80"/><trkseg>
<trkpt lat="50.640885" lon="5.541700"><time>2026-05-03T01:35:50Z</time></trkpt>
<trkpt lat="50.641168" lon="5.541621"><time>2026-05-03T01:45:50Z</time></trkpt>
</trkseg></trk>
<trk>
<name>llglgi80</name>
<cmt>d</cmt>
<desc>Liège Chemin n°i80 </desc>
<link href="https://chemins.be/liege/chemin/i80"/><trkseg>
<trkpt lat="50.641168" lon="5.541621"><time>2026-05-03T01:45:50Z</time></trkpt>
<trkpt lat="50.641971" lon="5.541192"><time>2026-05-03T01:55:50Z</time></trkpt>
<trkpt lat="50.642524" lon="5.540684"><time>2026-05-03T02:05:50Z</time></trkpt>
<trkpt lat="50.643218" lon="5.540033"><time>2026-05-03T02:15:50Z</time></trkpt>
<trkpt lat="50.643277" lon="5.539790"><time>2026-05-03T02:25:50Z</time></trkpt>
<trkpt lat="50.643245" lon="5.539382"><time>2026-05-03T02:35:50Z</time></trkpt>
<trkpt lat="50.642910" lon="5.538710"><time>2026-05-03T02:45:50Z</time></trkpt>
<trkpt lat="50.642260" lon="5.538632"><time>2026-05-03T02:55:50Z</time></trkpt>
<trkpt lat="50.642375" lon="5.538042"><time>2026-05-03T03:05:50Z</time></trkpt>
</trkseg>
</trk>
<trk>
<name>llglgi81</name>
<cmt>d</cmt>
<desc>Liège Sentier n°i81 </desc>
<link href="https://chemins.be/liege/sentier/i81"/><trkseg>
<trkpt lat="50.642235" lon="5.538628"><time>2026-05-03T01:35:50Z</time></trkpt>
<trkpt lat="50.641931" lon="5.538596"><time>2026-05-03T01:45:50Z</time></trkpt>
<trkpt lat="50.641849" lon="5.539365"><time>2026-05-03T01:55:50Z</time></trkpt>
<trkpt lat="50.641901" lon="5.539776"><time>2026-05-03T02:05:50Z</time></trkpt>
<trkpt lat="50.642320" lon="5.540155"><time>2026-05-03T02:15:50Z</time></trkpt>
<trkpt lat="50.642398" lon="5.540756"><time>2026-05-03T02:25:50Z</time></trkpt>
</trkseg>
</trk>
<trk>
<name>llglgi82</name>
<cmt>d</cmt>
<desc>Liège Chemin n°i82 </desc>
<link href="https://chemins.be/liege/chemin/i82"/><trkseg>
<trkpt lat="50.643219" lon="5.540027"><time>2026-05-03T01:35:50Z</time></trkpt>
<trkpt lat="50.641984" lon="5.539454"><time>2026-05-03T01:45:50Z</time></trkpt>
</trkseg>
</trk>
<trk>
<name>llglgi83</name>
<cmt>v</cmt>
<desc>Liège Chemin n°i83 </desc>
<link href="https://chemins.be/liege/chemin/i83"/><trkseg>
<trkpt lat="50.637801" lon="5.555375"><time>2026-05-03T01:35:50Z</time></trkpt>
<trkpt lat="50.637338" lon="5.556112"><time>2026-05-03T01:45:50Z</time></trkpt>
<trkpt lat="50.636837" lon="5.556532"><time>2026-05-03T01:55:50Z</time></trkpt>
<trkpt lat="50.636803" lon="5.556780"><time>2026-05-03T02:05:50Z</time></trkpt>
<trkpt lat="50.636915" lon="5.557181"><time>2026-05-03T02:15:50Z</time></trkpt>
<trkpt lat="50.636706" lon="5.556920"><time>2026-05-03T02:25:50Z</time></trkpt>
<trkpt lat="50.636774" lon="5.557302"><time>2026-05-03T02:35:50Z</time></trkpt>
<trkpt lat="50.636586" lon="5.557007"><time>2026-05-03T02:45:50Z</time></trkpt>
<trkpt lat="50.636679" lon="5.557367"><time>2026-05-03T02:55:50Z</time></trkpt>
<trkpt lat="50.636455" lon="5.557202"><time>2026-05-03T03:05:50Z</time></trkpt>
<trkpt lat="50.635991" lon="5.557521"><time>2026-05-03T03:15:50Z</time></trkpt>
<trkpt lat="50.635793" lon="5.557732"><time>2026-05-03T03:25:50Z</time></trkpt>
</trkseg>
</trk>
<trk>
<name>llglgi84</name>
<cmt>v</cmt>
<desc>Liège Chemin n°i84 Chemin des Puisatiers</desc>
<link href="https://chemins.be/liege/chemin/i84"/><trkseg>
<trkpt lat="50.633642" lon="5.559238"><time>2026-05-03T01:35:50Z</time></trkpt>
<trkpt lat="50.633175" lon="5.559574"><time>2026-05-03T01:45:50Z</time></trkpt>
<trkpt lat="50.632953" lon="5.559309"><time>2026-05-03T01:55:50Z</time></trkpt>
<trkpt lat="50.632798" lon="5.559309"><time>2026-05-03T02:05:50Z</time></trkpt>
<trkpt lat="50.632220" lon="5.559657"><time>2026-05-03T02:15:50Z</time></trkpt>
<trkpt lat="50.632122" lon="5.559604"><time>2026-05-03T02:25:50Z</time></trkpt>
<trkpt lat="50.632079" lon="5.559595"><time>2026-05-03T02:35:50Z</time></trkpt>
</trkseg>
</trk>
<trk>
<name>llglgi85</name>
<cmt>v</cmt>
<desc>Liège Sentier n°i85 </desc>
<link href="https://chemins.be/liege/sentier/i85"/><trkseg>
<trkpt lat="50.641348" lon="5.538038"><time>2026-05-03T01:35:50Z</time></trkpt>
<trkpt lat="50.641439" lon="5.538600"><time>2026-05-03T01:45:50Z</time></trkpt>
<trkpt lat="50.641534" lon="5.538768"><time>2026-05-03T01:55:50Z</time></trkpt>
<trkpt lat="50.641645" lon="5.538925"><time>2026-05-03T02:05:50Z</time></trkpt>
<trkpt lat="50.641888" lon="5.539063"><time>2026-05-03T02:15:50Z</time></trkpt>
</trkseg>
</trk>
<trk>
<name>llglgi86</name>
<cmt>v</cmt>
<desc>Liège Sentier n°i86 </desc>
<link href="https://chemins.be/liege/sentier/i86"/><trkseg>
<trkpt lat="50.651038" lon="5.551117"><time>2026-05-03T01:35:50Z</time></trkpt>
<trkpt lat="50.651217" lon="5.551228"><time>2026-05-03T01:45:50Z</time></trkpt>
<trkpt lat="50.651206" lon="5.551081"><time>2026-05-03T01:55:50Z</time></trkpt>
<trkpt lat="50.651328" lon="5.551013"><time>2026-05-03T02:05:50Z</time></trkpt>
<trkpt lat="50.651398" lon="5.550512"><time>2026-05-03T02:15:50Z</time></trkpt>
</trkseg>
</trk>
<trk>
<name>llglgi87</name>
<cmt>v</cmt>
<desc>Liège Sentier n°i87 </desc>
<link href="https://chemins.be/liege/sentier/i87"/><trkseg>
<trkpt lat="50.652441" lon="5.554407"><time>2026-05-03T01:35:50Z</time></trkpt>
<trkpt lat="50.652736" lon="5.554006"><time>2026-05-03T01:45:50Z</time></trkpt>
<trkpt lat="50.652881" lon="5.554046"><time>2026-05-03T01:55:50Z</time></trkpt>
<trkpt lat="50.653294" lon="5.554779"><time>2026-05-03T02:05:50Z</time></trkpt>
<trkpt lat="50.653700" lon="5.554285"><time>2026-05-03T02:15:50Z</time></trkpt>
<trkpt lat="50.653587" lon="5.553935"><time>2026-05-03T02:25:50Z</time></trkpt>
<trkpt lat="50.653591" lon="5.553459"><time>2026-05-03T02:35:50Z</time></trkpt>
</trkseg>
</trk>
<trk>
<name>llglgi88</name>
<cmt>d</cmt>
<desc>Liège Sentier n°i88 </desc>
<link href="https://chemins.be/liege/sentier/i88"/><trkseg>
<trkpt lat="50.649991" lon="5.550431"><time>2026-05-03T01:35:50Z</time></trkpt>
<trkpt lat="50.649847" lon="5.550690"><time>2026-05-03T01:45:50Z</time></trkpt>
<trkpt lat="50.649473" lon="5.552308"><time>2026-05-03T01:55:50Z</time></trkpt>
</trkseg>
</trk>
<trk>
<name>llglgi89</name>
<cmt>v</cmt>
<desc>Liège Sentier n°i89 </desc>
<link href="https://chemins.be/liege/sentier/i89"/><trkseg>
<trkpt lat="50.662948" lon="5.578007"><time>2026-05-03T01:35:50Z</time></trkpt>
<trkpt lat="50.662664" lon="5.578243"><time>2026-05-03T01:45:50Z</time></trkpt>
<trkpt lat="50.661998" lon="5.578078"><time>2026-05-03T01:55:50Z</time></trkpt>
</trkseg>
</trk>
<trk>
<name>llglgi9</name>
<cmt>v</cmt>
<desc>Liège Sentier n°i9 </desc>
<link href="https://chemins.be/liege/sentier/i9"/><trkseg>
<trkpt lat="50.655805" lon="5.558941"><time>2026-05-03T01:35:50Z</time></trkpt>
<trkpt lat="50.655663" lon="5.559644"><time>2026-05-03T01:45:50Z</time></trkpt>
<trkpt lat="50.655703" lon="5.560155"><time>2026-05-03T01:55:50Z</time></trkpt>
</trkseg>
</trk>
<trk>
<name>llglgi90</name>
<cmt>v</cmt>
<desc>Liège Sentier n°i90 </desc>
<link href="https://chemins.be/liege/sentier/i90"/><trkseg>
<trkpt lat="50.662694" lon="5.578268"><time>2026-05-03T01:35:50Z</time></trkpt>
<trkpt lat="50.662707" lon="5.578661"><time>2026-05-03T01:45:50Z</time></trkpt>
<trkpt lat="50.662104" lon="5.579176"><time>2026-05-03T01:55:50Z</time></trkpt>
</trkseg>
</trk>
<trk>
<name>llglgi91</name>
<cmt>b</cmt>
<desc>Liège Chemin n°i91 </desc>
<link href="https://chemins.be/liege/chemin/i91"/><trkseg>
<trkpt lat="50.663202" lon="5.578397"><time>2026-05-03T01:35:50Z</time></trkpt>
<trkpt lat="50.662138" lon="5.579337"><time>2026-05-03T01:45:50Z</time></trkpt>
<trkpt lat="50.662016" lon="5.579816"><time>2026-05-03T01:55:50Z</time></trkpt>
<trkpt lat="50.662070" lon="5.580381"><time>2026-05-03T02:05:50Z</time></trkpt>
</trkseg>
</trk>
<trk>
<name>llglgi92</name>
<cmt>v</cmt>
<desc>Liège Sentier n°i92 </desc>
<link href="https://chemins.be/liege/sentier/i92"/><trkseg>
<trkpt lat="50.650457" lon="5.570519"><time>2026-05-03T01:35:50Z</time></trkpt>
<trkpt lat="50.650321" lon="5.570562"><time>2026-05-03T01:45:50Z</time></trkpt>
<trkpt lat="50.649980" lon="5.571120"><time>2026-05-03T01:55:50Z</time></trkpt>
<trkpt lat="50.649760" lon="5.571271"><time>2026-05-03T02:05:50Z</time></trkpt>
<trkpt lat="50.649484" lon="5.571645"><time>2026-05-03T02:15:50Z</time></trkpt>
<trkpt lat="50.649389" lon="5.571860"><time>2026-05-03T02:25:50Z</time></trkpt>
<trkpt lat="50.649280" lon="5.571989"><time>2026-05-03T02:35:50Z</time></trkpt>
<trkpt lat="50.649137" lon="5.571967"><time>2026-05-03T02:45:50Z</time></trkpt>
<trkpt lat="50.649042" lon="5.572150"><time>2026-05-03T02:55:50Z</time></trkpt>
<trkpt lat="50.648986" lon="5.572898"><time>2026-05-03T03:05:50Z</time></trkpt>
</trkseg>
</trk>
<trk>
<name>llglgi93</name>
<cmt>v</cmt>
<desc>Liège Chemin n°i93 Favechamps</desc>
<link href="https://chemins.be/liege/chemin/i93"/><trkseg>
<trkpt lat="50.649442" lon="5.571281"><time>2026-05-03T01:35:50Z</time></trkpt>
<trkpt lat="50.649588" lon="5.571291"><time>2026-05-03T01:45:50Z</time></trkpt>
<trkpt lat="50.649680" lon="5.571383"><time>2026-05-03T01:55:50Z</time></trkpt>
</trkseg>
</trk>
<trk>
<name>llglgi94</name>
<cmt>v</cmt>
<desc>Liège Sentier n°i94 </desc>
<link href="https://chemins.be/liege/sentier/i94"/><trkseg>
<trkpt lat="50.652272" lon="5.572410"><time>2026-05-03T01:35:50Z</time></trkpt>
<trkpt lat="50.652824" lon="5.572255"><time>2026-05-03T01:45:50Z</time></trkpt>
<trkpt lat="50.653134" lon="5.571492"><time>2026-05-03T01:55:50Z</time></trkpt>
<trkpt lat="50.653980" lon="5.571159"><time>2026-05-03T02:05:50Z</time></trkpt>
<trkpt lat="50.654220" lon="5.571189"><time>2026-05-03T02:15:50Z</time></trkpt>
<trkpt lat="50.654411" lon="5.570920"><time>2026-05-03T02:25:50Z</time></trkpt>
<trkpt lat="50.654472" lon="5.570598"><time>2026-05-03T02:35:50Z</time></trkpt>
<trkpt lat="50.654419" lon="5.570169"><time>2026-05-03T02:45:50Z</time></trkpt>
<trkpt lat="50.654457" lon="5.569728"><time>2026-05-03T02:55:50Z</time></trkpt>
<trkpt lat="50.654625" lon="5.570142"><time>2026-05-03T03:05:50Z</time></trkpt>
<trkpt lat="50.654712" lon="5.570136"><time>2026-05-03T03:15:50Z</time></trkpt>
<trkpt lat="50.654753" lon="5.569903"><time>2026-05-03T03:25:50Z</time></trkpt>
<trkpt lat="50.654825" lon="5.569915"><time>2026-05-03T03:35:50Z</time></trkpt>
<trkpt lat="50.654829" lon="5.570231"><time>2026-05-03T03:45:50Z</time></trkpt>
<trkpt lat="50.654897" lon="5.570308"><time>2026-05-03T03:55:50Z</time></trkpt>
<trkpt lat="50.654976" lon="5.570004"><time>2026-05-03T04:05:50Z</time></trkpt>
<trkpt lat="50.655040" lon="5.569790"><time>2026-05-03T04:15:50Z</time></trkpt>
<trkpt lat="50.655120" lon="5.569748"><time>2026-05-03T04:25:50Z</time></trkpt>
</trkseg>
</trk>
<trk>
<name>llglgi95</name>
<cmt>v</cmt>
<desc>Liège Sentier n°i95 </desc>
<link href="https://chemins.be/liege/sentier/i95"/><trkseg>
<trkpt lat="50.653223" lon="5.569140"><time>2026-05-03T01:35:50Z</time></trkpt>
<trkpt lat="50.653472" lon="5.569420"><time>2026-05-03T01:45:50Z</time></trkpt>
<trkpt lat="50.653525" lon="5.569671"><time>2026-05-03T01:55:50Z</time></trkpt>
<trkpt lat="50.653744" lon="5.570094"><time>2026-05-03T02:05:50Z</time></trkpt>
<trkpt lat="50.654202" lon="5.570589"><time>2026-05-03T02:15:50Z</time></trkpt>
<trkpt lat="50.654225" lon="5.571201"><time>2026-05-03T02:25:50Z</time></trkpt>
<trkpt lat="50.654228" lon="5.571441"><time>2026-05-03T02:35:50Z</time></trkpt>
<trkpt lat="50.654202" lon="5.571673"><time>2026-05-03T02:45:50Z</time></trkpt>
<trkpt lat="50.653635" lon="5.571930"><time>2026-05-03T02:55:50Z</time></trkpt>
<trkpt lat="50.653661" lon="5.572299"><time>2026-05-03T03:05:50Z</time></trkpt>
<trkpt lat="50.653733" lon="5.572550"><time>2026-05-03T03:15:50Z</time></trkpt>
<trkpt lat="50.653911" lon="5.573259"><time>2026-05-03T03:25:50Z</time></trkpt>
</trkseg>
</trk>
<trk>
<name>llglgi96</name>
<cmt>v</cmt>
<desc>Liège Sentier n°i96 </desc>
<link href="https://chemins.be/liege/sentier/i96"/><trkseg>
<trkpt lat="50.655676" lon="5.563748"><time>2026-05-03T01:35:50Z</time></trkpt>
<trkpt lat="50.655629" lon="5.563029"><time>2026-05-03T01:45:50Z</time></trkpt>
</trkseg>
</trk>
<trk>
<name>llglgi97</name>
<cmt>v</cmt>
<desc>Liège Sentier n°i97 Degrés des Jésuites Anglais</desc>
<link href="https://chemins.be/liege/sentier/i97"/><trkseg>
<trkpt lat="50.648321" lon="5.567413"><time>2026-05-03T01:35:50Z</time></trkpt>
<trkpt lat="50.648181" lon="5.567586"><time>2026-05-03T01:45:50Z</time></trkpt>
</trkseg>
</trk>
<trk>
<name>llglgi98</name>
<cmt>v</cmt>
<desc>Liège Sentier n°i98 </desc>
<link href="https://chemins.be/liege/sentier/i98"/><trkseg>
<trkpt lat="50.655672" lon="5.562692"><time>2026-05-03T01:35:50Z</time></trkpt>
<trkpt lat="50.655723" lon="5.561931"><time>2026-05-03T01:45:50Z</time></trkpt>
</trkseg>
</trk>
<trk>
<name>llglgi99</name>
<cmt>v</cmt>
<desc>Liège Sentier n°i99 </desc>
<link href="https://chemins.be/liege/sentier/i99"/><trkseg>
<trkpt lat="50.664400" lon="5.578392"><time>2026-05-03T01:35:50Z</time></trkpt>
<trkpt lat="50.664468" lon="5.578409"><time>2026-05-03T01:45:50Z</time></trkpt>
<trkpt lat="50.665597" lon="5.577842"><time>2026-05-03T01:55:50Z</time></trkpt>
<trkpt lat="50.665366" lon="5.575154"><time>2026-05-03T02:05:50Z</time></trkpt>
<trkpt lat="50.665050" lon="5.573969"><time>2026-05-03T02:15:50Z</time></trkpt>
<trkpt lat="50.664125" lon="5.572512"><time>2026-05-03T02:25:50Z</time></trkpt>
<trkpt lat="50.662930" lon="5.571397"><time>2026-05-03T02:35:50Z</time></trkpt>
<trkpt lat="50.662761" lon="5.571401"><time>2026-05-03T02:45:50Z</time></trkpt>
</trkseg>
</trk>
<trk>
<name>llglgL210</name>
<cmt>v</cmt>
<desc>Liège Chemin n°L210 RAVeL Ligne 210</desc>
<link href="https://chemins.be/liege/chemin/L210"/><trkseg>
<trkpt lat="50.643045" lon="5.537528"><time>2026-05-03T01:35:50Z</time></trkpt>
<trkpt lat="50.642275" lon="5.537935"><time>2026-05-03T01:45:50Z</time></trkpt>
<trkpt lat="50.640276" lon="5.538096"><time>2026-05-03T01:55:50Z</time></trkpt>
</trkseg></trk>
<trk>
<name>llglgL210</name>
<cmt>d</cmt>
<desc>Liège Chemin n°L210 RAVeL Ligne 210</desc>
<link href="https://chemins.be/liege/chemin/L210"/><trkseg>
<trkpt lat="50.640276" lon="5.538096"><time>2026-05-03T01:55:50Z</time></trkpt>
<trkpt lat="50.639273" lon="5.538053"><time>2026-05-03T02:05:50Z</time></trkpt>
</trkseg>
</trk>
<trk>
<name>llglgLv720</name>
<cmt>v</cmt>
<desc>Liège Chemin n°Lv720 Boulevard Fosse-Crahay</desc>
<link href="https://chemins.be/liege/chemin/Lv720"/><trkseg>
<trkpt lat="50.666845" lon="5.580203"><time>2026-05-03T01:35:50Z</time></trkpt>
<trkpt lat="50.666252" lon="5.579917"><time>2026-05-03T01:45:50Z</time></trkpt>
<trkpt lat="50.664414" lon="5.578647"><time>2026-05-03T01:55:50Z</time></trkpt>
<trkpt lat="50.663783" lon="5.575553"><time>2026-05-03T02:05:50Z</time></trkpt>
<trkpt lat="50.662822" lon="5.572160"><time>2026-05-03T02:15:50Z</time></trkpt>
<trkpt lat="50.662716" lon="5.570358"><time>2026-05-03T02:25:50Z</time></trkpt>
</trkseg>
</trk>
</gpx>